<?xml version="1.0" encoding="UTF-8" standalone="no" ?>
<gpx xmlns="http://www.topografix.com/GPX/1/1" xmlns:xsi="http://www.w3.org/2001/XMLSchema-instance" xsi:schemaLocation="http://www.topografix.com/GPX/1/1 http://www.topografix.com/GPX/1/1/gpx.xsd" version="1.1" creator="VisuGPX - https://www.visugpx.com">
  <metadata>
    <name>Sentier du Littoral</name>
    <desc><![CDATA[Facile et très agréable.]]></desc>
  </metadata>
  <trk>
    <name><![CDATA[Sentier du Littoral_1]]></name>
    <trkseg>
      <trkpt lat="43.16053" lon="5.70347">
        <ele>61.2</ele>
        <time>2015-05-06T06:31:09Z</time>
      </trkpt>
      <trkpt lat="43.16053" lon="5.70345">
        <ele>62.4</ele>
        <time>2015-05-06T06:31:10Z</time>
      </trkpt>
    </trkseg>
  </trk>
  <trk>
    <name><![CDATA[Sentier du Littoral_2]]></name>
    <trkseg>
      <trkpt lat="43.16015" lon="5.70268">
        <ele>70.9</ele>
        <time>2015-05-06T06:32:32Z</time>
      </trkpt>
      <trkpt lat="43.16014" lon="5.70268">
        <ele>70.5</ele>
        <time>2015-05-06T06:32:33Z</time>
      </trkpt>
    </trkseg>
  </trk>
  <trk>
    <name><![CDATA[Sentier du Littoral_3]]></name>
    <trkseg>
      <trkpt lat="43.16011" lon="5.70222">
        <ele>62.2</ele>
        <time>2015-05-06T06:33:10Z</time>
      </trkpt>
      <trkpt lat="43.1602" lon="5.70202">
        <ele>63.4</ele>
        <time>2015-05-06T06:33:28Z</time>
      </trkpt>
      <trkpt lat="43.16026" lon="5.7018">
        <ele>60.2</ele>
        <time>2015-05-06T06:33:45Z</time>
      </trkpt>
      <trkpt lat="43.16027" lon="5.70178">
        <ele>61.7</ele>
        <time>2015-05-06T06:33:46Z</time>
      </trkpt>
      <trkpt lat="43.16038" lon="5.70134">
        <ele>61.2</ele>
        <time>2015-05-06T06:34:19Z</time>
      </trkpt>
      <trkpt lat="43.16044" lon="5.70111">
        <ele>62</ele>
        <time>2015-05-06T06:34:37Z</time>
      </trkpt>
      <trkpt lat="43.16052" lon="5.7009">
        <ele>60.2</ele>
        <time>2015-05-06T06:34:58Z</time>
      </trkpt>
      <trkpt lat="43.16052" lon="5.70088">
        <ele>60.2</ele>
        <time>2015-05-06T06:34:59Z</time>
      </trkpt>
      <trkpt lat="43.16065" lon="5.70045">
        <ele>55.2</ele>
        <time>2015-05-06T06:35:35Z</time>
      </trkpt>
      <trkpt lat="43.1607" lon="5.70023">
        <ele>50.9</ele>
        <time>2015-05-06T06:35:52Z</time>
      </trkpt>
      <trkpt lat="43.16078" lon="5.70001">
        <ele>49.4</ele>
        <time>2015-05-06T06:36:11Z</time>
      </trkpt>
      <trkpt lat="43.16078" lon="5.7">
        <ele>48.5</ele>
        <time>2015-05-06T06:36:12Z</time>
      </trkpt>
      <trkpt lat="43.16092" lon="5.69958">
        <ele>47</ele>
        <time>2015-05-06T06:36:43Z</time>
      </trkpt>
      <trkpt lat="43.16101" lon="5.69938">
        <ele>42.7</ele>
        <time>2015-05-06T06:37:01Z</time>
      </trkpt>
      <trkpt lat="43.16112" lon="5.69921">
        <ele>46.5</ele>
        <time>2015-05-06T06:37:15Z</time>
      </trkpt>
      <trkpt lat="43.16114" lon="5.6992">
        <ele>48</ele>
        <time>2015-05-06T06:37:16Z</time>
      </trkpt>
      <trkpt lat="43.16125" lon="5.69877">
        <ele>47.2</ele>
        <time>2015-05-06T06:37:54Z</time>
      </trkpt>
      <trkpt lat="43.16126" lon="5.69853">
        <ele>45</ele>
        <time>2015-05-06T06:38:11Z</time>
      </trkpt>
      <trkpt lat="43.16123" lon="5.69829">
        <ele>40.9</ele>
        <time>2015-05-06T06:38:31Z</time>
      </trkpt>
      <trkpt lat="43.16122" lon="5.69828">
        <ele>40.5</ele>
        <time>2015-05-06T06:38:32Z</time>
      </trkpt>
      <trkpt lat="43.16118" lon="5.69788">
        <ele>44.9</ele>
        <time>2015-05-06T06:39:10Z</time>
      </trkpt>
      <trkpt lat="43.16131" lon="5.6977">
        <ele>44</ele>
        <time>2015-05-06T06:39:30Z</time>
      </trkpt>
      <trkpt lat="43.16147" lon="5.69762">
        <ele>40.4</ele>
        <time>2015-05-06T06:39:51Z</time>
      </trkpt>
      <trkpt lat="43.16148" lon="5.69762">
        <ele>40.4</ele>
        <time>2015-05-06T06:39:52Z</time>
      </trkpt>
      <trkpt lat="43.16182" lon="5.69752">
        <ele>28.5</ele>
        <time>2015-05-06T06:40:27Z</time>
      </trkpt>
      <trkpt lat="43.16198" lon="5.69744">
        <ele>26.1</ele>
        <time>2015-05-06T06:40:44Z</time>
      </trkpt>
      <trkpt lat="43.16215" lon="5.69736">
        <ele>21.5</ele>
        <time>2015-05-06T06:41:01Z</time>
      </trkpt>
      <trkpt lat="43.16216" lon="5.69735">
        <ele>21.1</ele>
        <time>2015-05-06T06:41:02Z</time>
      </trkpt>
      <trkpt lat="43.16249" lon="5.69724">
        <ele>27.2</ele>
        <time>2015-05-06T06:41:25Z</time>
      </trkpt>
      <trkpt lat="43.16263" lon="5.6971">
        <ele>31.1</ele>
        <time>2015-05-06T06:41:42Z</time>
      </trkpt>
      <trkpt lat="43.16278" lon="5.69697">
        <ele>22.2</ele>
        <time>2015-05-06T06:42:03Z</time>
      </trkpt>
      <trkpt lat="43.16279" lon="5.69697">
        <ele>21.7</ele>
        <time>2015-05-06T06:42:04Z</time>
      </trkpt>
      <trkpt lat="43.16307" lon="5.6967">
        <ele>13.3</ele>
        <time>2015-05-06T06:42:34Z</time>
      </trkpt>
      <trkpt lat="43.16321" lon="5.69654">
        <ele>6.4</ele>
        <time>2015-05-06T06:42:53Z</time>
      </trkpt>
      <trkpt lat="43.16335" lon="5.6964">
        <ele>11.6</ele>
        <time>2015-05-06T06:43:08Z</time>
      </trkpt>
      <trkpt lat="43.16336" lon="5.69639">
        <ele>10.8</ele>
        <time>2015-05-06T06:43:09Z</time>
      </trkpt>
      <trkpt lat="43.16364" lon="5.69616">
        <ele>13.1</ele>
        <time>2015-05-06T06:43:35Z</time>
      </trkpt>
      <trkpt lat="43.16379" lon="5.69604">
        <ele>10.8</ele>
        <time>2015-05-06T06:43:52Z</time>
      </trkpt>
      <trkpt lat="43.16395" lon="5.69596">
        <ele>9.1</ele>
        <time>2015-05-06T06:44:04Z</time>
      </trkpt>
      <trkpt lat="43.1641" lon="5.69585">
        <ele>6.5</ele>
        <time>2015-05-06T06:44:18Z</time>
      </trkpt>
      <trkpt lat="43.16411" lon="5.69584">
        <ele>6.6</ele>
        <time>2015-05-06T06:44:19Z</time>
      </trkpt>
      <trkpt lat="43.16437" lon="5.69555">
        <ele>19.1</ele>
        <time>2015-05-06T06:44:43Z</time>
      </trkpt>
      <trkpt lat="43.16449" lon="5.69538">
        <ele>15.8</ele>
        <time>2015-05-06T06:45:00Z</time>
      </trkpt>
      <trkpt lat="43.16461" lon="5.6952">
        <ele>13.1</ele>
        <time>2015-05-06T06:45:17Z</time>
      </trkpt>
      <trkpt lat="43.16475" lon="5.69505">
        <ele>18.7</ele>
        <time>2015-05-06T06:45:32Z</time>
      </trkpt>
      <trkpt lat="43.16476" lon="5.69504">
        <ele>18.8</ele>
        <time>2015-05-06T06:45:33Z</time>
      </trkpt>
      <trkpt lat="43.16492" lon="5.69466">
        <ele>10.3</ele>
        <time>2015-05-06T06:46:09Z</time>
      </trkpt>
      <trkpt lat="43.16484" lon="5.69445">
        <ele>5.6</ele>
        <time>2015-05-06T06:46:28Z</time>
      </trkpt>
      <trkpt lat="43.16475" lon="5.69424">
        <ele>6.3</ele>
        <time>2015-05-06T06:46:46Z</time>
      </trkpt>
      <trkpt lat="43.16475" lon="5.69423">
        <ele>5.5</ele>
        <time>2015-05-06T06:46:47Z</time>
      </trkpt>
      <trkpt lat="43.16461" lon="5.69379">
        <ele>4.5</ele>
        <time>2015-05-06T06:47:20Z</time>
      </trkpt>
      <trkpt lat="43.16453" lon="5.69357">
        <ele>12.3</ele>
        <time>2015-05-06T06:47:32Z</time>
      </trkpt>
      <trkpt lat="43.16446" lon="5.69334">
        <ele>14.1</ele>
        <time>2015-05-06T06:47:47Z</time>
      </trkpt>
      <trkpt lat="43.16446" lon="5.69333">
        <ele>14.3</ele>
        <time>2015-05-06T06:47:48Z</time>
      </trkpt>
      <trkpt lat="43.16429" lon="5.69292">
        <ele>8.8</ele>
        <time>2015-05-06T06:48:23Z</time>
      </trkpt>
      <trkpt lat="43.16421" lon="5.69271">
        <ele>5.4</ele>
        <time>2015-05-06T06:48:40Z</time>
      </trkpt>
      <trkpt lat="43.16408" lon="5.69255">
        <ele>2.7</ele>
        <time>2015-05-06T06:48:57Z</time>
      </trkpt>
      <trkpt lat="43.16407" lon="5.69255">
        <ele>2</ele>
        <time>2015-05-06T06:48:58Z</time>
      </trkpt>
      <trkpt lat="43.16381" lon="5.69227">
        <ele>11.3</ele>
        <time>2015-05-06T06:49:24Z</time>
      </trkpt>
      <trkpt lat="43.16365" lon="5.69217">
        <ele>15.3</ele>
        <time>2015-05-06T06:49:46Z</time>
      </trkpt>
      <trkpt lat="43.1635" lon="5.69206">
        <ele>15.1</ele>
        <time>2015-05-06T06:50:00Z</time>
      </trkpt>
      <trkpt lat="43.16349" lon="5.69205">
        <ele>15.8</ele>
        <time>2015-05-06T06:50:01Z</time>
      </trkpt>
      <trkpt lat="43.16329" lon="5.6917">
        <ele>23.1</ele>
        <time>2015-05-06T06:50:26Z</time>
      </trkpt>
      <trkpt lat="43.16338" lon="5.69151">
        <ele>25.1</ele>
        <time>2015-05-06T06:50:43Z</time>
      </trkpt>
      <trkpt lat="43.16346" lon="5.69129">
        <ele>30.2</ele>
        <time>2015-05-06T06:50:59Z</time>
      </trkpt>
      <trkpt lat="43.1634" lon="5.69107">
        <ele>31.3</ele>
        <time>2015-05-06T06:51:14Z</time>
      </trkpt>
      <trkpt lat="43.16339" lon="5.69106">
        <ele>31.6</ele>
        <time>2015-05-06T06:51:15Z</time>
      </trkpt>
      <trkpt lat="43.16326" lon="5.69063">
        <ele>35.5</ele>
        <time>2015-05-06T06:51:46Z</time>
      </trkpt>
      <trkpt lat="43.16315" lon="5.69044">
        <ele>33.5</ele>
        <time>2015-05-06T06:52:03Z</time>
      </trkpt>
      <trkpt lat="43.16303" lon="5.69026">
        <ele>36</ele>
        <time>2015-05-06T06:52:25Z</time>
      </trkpt>
      <trkpt lat="43.16302" lon="5.69026">
        <ele>35.9</ele>
        <time>2015-05-06T06:52:26Z</time>
      </trkpt>
      <trkpt lat="43.16289" lon="5.68982">
        <ele>48.2</ele>
        <time>2015-05-06T06:52:56Z</time>
      </trkpt>
      <trkpt lat="43.16283" lon="5.68959">
        <ele>44</ele>
        <time>2015-05-06T06:53:16Z</time>
      </trkpt>
      <trkpt lat="43.16273" lon="5.68941">
        <ele>48</ele>
        <time>2015-05-06T06:53:33Z</time>
      </trkpt>
      <trkpt lat="43.16273" lon="5.68939">
        <ele>49.5</ele>
        <time>2015-05-06T06:53:34Z</time>
      </trkpt>
      <trkpt lat="43.16251" lon="5.68907">
        <ele>37.7</ele>
        <time>2015-05-06T06:54:31Z</time>
      </trkpt>
      <trkpt lat="43.16242" lon="5.68886">
        <ele>42.2</ele>
        <time>2015-05-06T06:54:57Z</time>
      </trkpt>
      <trkpt lat="43.16241" lon="5.68885">
        <ele>41.7</ele>
        <time>2015-05-06T06:54:58Z</time>
      </trkpt>
      <trkpt lat="43.16232" lon="5.68844">
        <ele>41.7</ele>
        <time>2015-05-06T06:55:20Z</time>
      </trkpt>
      <trkpt lat="43.16231" lon="5.68819">
        <ele>48.9</ele>
        <time>2015-05-06T06:55:33Z</time>
      </trkpt>
      <trkpt lat="43.16232" lon="5.68796">
        <ele>46.5</ele>
        <time>2015-05-06T06:55:48Z</time>
      </trkpt>
      <trkpt lat="43.1623" lon="5.68772">
        <ele>46.4</ele>
        <time>2015-05-06T06:56:03Z</time>
      </trkpt>
      <trkpt lat="43.16229" lon="5.68771">
        <ele>45.2</ele>
        <time>2015-05-06T06:56:04Z</time>
      </trkpt>
      <trkpt lat="43.162" lon="5.68753">
        <ele>42.7</ele>
        <time>2015-05-06T06:56:41Z</time>
      </trkpt>
      <trkpt lat="43.16183" lon="5.68752">
        <ele>38</ele>
        <time>2015-05-06T06:56:57Z</time>
      </trkpt>
      <trkpt lat="43.16165" lon="5.68749">
        <ele>38</ele>
        <time>2015-05-06T06:57:15Z</time>
      </trkpt>
      <trkpt lat="43.16164" lon="5.68749">
        <ele>38.5</ele>
        <time>2015-05-06T06:57:16Z</time>
      </trkpt>
      <trkpt lat="43.16143" lon="5.6872">
        <ele>64</ele>
        <time>2015-05-06T06:59:24Z</time>
      </trkpt>
      <trkpt lat="43.16143" lon="5.6872">
        <ele>63.5</ele>
        <time>2015-05-06T06:59:25Z</time>
      </trkpt>
      <trkpt lat="43.16166" lon="5.68757">
        <ele>57.2</ele>
        <time>2015-05-06T07:00:10Z</time>
      </trkpt>
      <trkpt lat="43.1618" lon="5.68771">
        <ele>57.9</ele>
        <time>2015-05-06T07:00:30Z</time>
      </trkpt>
      <trkpt lat="43.16181" lon="5.68772">
        <ele>57</ele>
        <time>2015-05-06T07:00:31Z</time>
      </trkpt>
      <trkpt lat="43.16186" lon="5.68818">
        <ele>55.7</ele>
        <time>2015-05-06T07:01:16Z</time>
      </trkpt>
      <trkpt lat="43.16185" lon="5.68842">
        <ele>58</ele>
        <time>2015-05-06T07:01:32Z</time>
      </trkpt>
      <trkpt lat="43.16185" lon="5.68843">
        <ele>57.9</ele>
        <time>2015-05-06T07:01:33Z</time>
      </trkpt>
      <trkpt lat="43.16184" lon="5.68889">
        <ele>59.9</ele>
        <time>2015-05-06T07:02:10Z</time>
      </trkpt>
      <trkpt lat="43.16196" lon="5.68908">
        <ele>72.5</ele>
        <time>2015-05-06T07:02:24Z</time>
      </trkpt>
      <trkpt lat="43.16195" lon="5.68932">
        <ele>77</ele>
        <time>2015-05-06T07:02:44Z</time>
      </trkpt>
      <trkpt lat="43.16194" lon="5.68934">
        <ele>76.5</ele>
        <time>2015-05-06T07:02:45Z</time>
      </trkpt>
      <trkpt lat="43.16178" lon="5.68973">
        <ele>76.3</ele>
        <time>2015-05-06T07:03:21Z</time>
      </trkpt>
      <trkpt lat="43.16161" lon="5.68981">
        <ele>77.6</ele>
        <time>2015-05-06T07:03:41Z</time>
      </trkpt>
      <trkpt lat="43.16145" lon="5.68989">
        <ele>85.3</ele>
        <time>2015-05-06T07:04:05Z</time>
      </trkpt>
      <trkpt lat="43.16144" lon="5.6899">
        <ele>85.5</ele>
        <time>2015-05-06T07:04:06Z</time>
      </trkpt>
      <trkpt lat="43.16114" lon="5.69009">
        <ele>81.4</ele>
        <time>2015-05-06T07:04:31Z</time>
      </trkpt>
      <trkpt lat="43.16115" lon="5.69033">
        <ele>78.3</ele>
        <time>2015-05-06T07:05:33Z</time>
      </trkpt>
      <trkpt lat="43.16114" lon="5.69034">
        <ele>78</ele>
        <time>2015-05-06T07:05:34Z</time>
      </trkpt>
      <trkpt lat="43.16117" lon="5.6908">
        <ele>82.5</ele>
        <time>2015-05-06T07:06:14Z</time>
      </trkpt>
      <trkpt lat="43.16114" lon="5.69105">
        <ele>81</ele>
        <time>2015-05-06T07:06:34Z</time>
      </trkpt>
      <trkpt lat="43.16114" lon="5.69106">
        <ele>80.9</ele>
        <time>2015-05-06T07:06:35Z</time>
      </trkpt>
      <trkpt lat="43.16103" lon="5.69148">
        <ele>84.6</ele>
        <time>2015-05-06T07:07:13Z</time>
      </trkpt>
      <trkpt lat="43.16095" lon="5.6917">
        <ele>81.3</ele>
        <time>2015-05-06T07:07:36Z</time>
      </trkpt>
      <trkpt lat="43.16095" lon="5.69171">
        <ele>81.1</ele>
        <time>2015-05-06T07:07:37Z</time>
      </trkpt>
      <trkpt lat="43.16082" lon="5.69214">
        <ele>86.5</ele>
        <time>2015-05-06T07:08:14Z</time>
      </trkpt>
      <trkpt lat="43.16076" lon="5.69237">
        <ele>82</ele>
        <time>2015-05-06T07:08:28Z</time>
      </trkpt>
      <trkpt lat="43.16064" lon="5.69255">
        <ele>74.5</ele>
        <time>2015-05-06T07:08:55Z</time>
      </trkpt>
      <trkpt lat="43.16063" lon="5.69256">
        <ele>74</ele>
        <time>2015-05-06T07:08:56Z</time>
      </trkpt>
      <trkpt lat="43.16035" lon="5.69231">
        <ele>79</ele>
        <time>2015-05-06T07:09:36Z</time>
      </trkpt>
      <trkpt lat="43.16022" lon="5.69215">
        <ele>78.5</ele>
        <time>2015-05-06T07:09:57Z</time>
      </trkpt>
      <trkpt lat="43.16022" lon="5.69214">
        <ele>78.4</ele>
        <time>2015-05-06T07:09:58Z</time>
      </trkpt>
      <trkpt lat="43.15996" lon="5.69184">
        <ele>64.4</ele>
        <time>2015-05-06T07:10:41Z</time>
      </trkpt>
      <trkpt lat="43.15983" lon="5.69168">
        <ele>56.4</ele>
        <time>2015-05-06T07:11:02Z</time>
      </trkpt>
      <trkpt lat="43.15982" lon="5.69167">
        <ele>55.9</ele>
        <time>2015-05-06T07:11:03Z</time>
      </trkpt>
      <trkpt lat="43.1595" lon="5.69152">
        <ele>53.2</ele>
        <time>2015-05-06T07:11:36Z</time>
      </trkpt>
      <trkpt lat="43.15934" lon="5.69141">
        <ele>52</ele>
        <time>2015-05-06T07:11:53Z</time>
      </trkpt>
      <trkpt lat="43.1592" lon="5.69127">
        <ele>55</ele>
        <time>2015-05-06T07:12:12Z</time>
      </trkpt>
      <trkpt lat="43.15919" lon="5.69126">
        <ele>55.5</ele>
        <time>2015-05-06T07:12:13Z</time>
      </trkpt>
      <trkpt lat="43.15893" lon="5.69101">
        <ele>60.7</ele>
        <time>2015-05-06T07:12:46Z</time>
      </trkpt>
      <trkpt lat="43.15878" lon="5.69089">
        <ele>64.4</ele>
        <time>2015-05-06T07:13:02Z</time>
      </trkpt>
      <trkpt lat="43.15864" lon="5.69077">
        <ele>69.5</ele>
        <time>2015-05-06T07:13:17Z</time>
      </trkpt>
      <trkpt lat="43.15863" lon="5.69075">
        <ele>70.4</ele>
        <time>2015-05-06T07:13:18Z</time>
      </trkpt>
      <trkpt lat="43.15834" lon="5.69049">
        <ele>74.6</ele>
        <time>2015-05-06T07:13:48Z</time>
      </trkpt>
      <trkpt lat="43.1582" lon="5.69036">
        <ele>76</ele>
        <time>2015-05-06T07:14:04Z</time>
      </trkpt>
      <trkpt lat="43.15816" lon="5.69013">
        <ele>81.5</ele>
        <time>2015-05-06T07:14:20Z</time>
      </trkpt>
      <trkpt lat="43.15815" lon="5.6901">
        <ele>83.1</ele>
        <time>2015-05-06T07:14:21Z</time>
      </trkpt>
      <trkpt lat="43.1581" lon="5.68967">
        <ele>84.1</ele>
        <time>2015-05-06T07:14:54Z</time>
      </trkpt>
      <trkpt lat="43.15806" lon="5.68943">
        <ele>82.3</ele>
        <time>2015-05-06T07:15:10Z</time>
      </trkpt>
      <trkpt lat="43.15794" lon="5.68925">
        <ele>78.3</ele>
        <time>2015-05-06T07:15:31Z</time>
      </trkpt>
      <trkpt lat="43.15793" lon="5.68924">
        <ele>78.3</ele>
        <time>2015-05-06T07:15:32Z</time>
      </trkpt>
      <trkpt lat="43.15761" lon="5.68918">
        <ele>80.3</ele>
        <time>2015-05-06T07:16:07Z</time>
      </trkpt>
      <trkpt lat="43.15745" lon="5.68907">
        <ele>80.9</ele>
        <time>2015-05-06T07:16:25Z</time>
      </trkpt>
      <trkpt lat="43.15729" lon="5.68903">
        <ele>70.4</ele>
        <time>2015-05-06T07:16:47Z</time>
      </trkpt>
      <trkpt lat="43.15728" lon="5.68902">
        <ele>71.6</ele>
        <time>2015-05-06T07:16:48Z</time>
      </trkpt>
      <trkpt lat="43.15694" lon="5.689">
        <ele>76.9</ele>
        <time>2015-05-06T07:17:26Z</time>
      </trkpt>
      <trkpt lat="43.15677" lon="5.68902">
        <ele>74.1</ele>
        <time>2015-05-06T07:17:44Z</time>
      </trkpt>
      <trkpt lat="43.15659" lon="5.68902">
        <ele>70</ele>
        <time>2015-05-06T07:18:03Z</time>
      </trkpt>
      <trkpt lat="43.15658" lon="5.68902">
        <ele>70</ele>
        <time>2015-05-06T07:18:04Z</time>
      </trkpt>
      <trkpt lat="43.15625" lon="5.68916">
        <ele>65.5</ele>
        <time>2015-05-06T07:18:43Z</time>
      </trkpt>
      <trkpt lat="43.1561" lon="5.68924">
        <ele>66.5</ele>
        <time>2015-05-06T07:19:01Z</time>
      </trkpt>
      <trkpt lat="43.15593" lon="5.68931">
        <ele>63.9</ele>
        <time>2015-05-06T07:19:19Z</time>
      </trkpt>
      <trkpt lat="43.15592" lon="5.68931">
        <ele>63.7</ele>
        <time>2015-05-06T07:19:20Z</time>
      </trkpt>
      <trkpt lat="43.1556" lon="5.68948">
        <ele>59.4</ele>
        <time>2015-05-06T07:19:53Z</time>
      </trkpt>
      <trkpt lat="43.15543" lon="5.6895">
        <ele>56.2</ele>
        <time>2015-05-06T07:20:10Z</time>
      </trkpt>
      <trkpt lat="43.15526" lon="5.68946">
        <ele>54.7</ele>
        <time>2015-05-06T07:20:28Z</time>
      </trkpt>
      <trkpt lat="43.15525" lon="5.68946">
        <ele>54.9</ele>
        <time>2015-05-06T07:20:29Z</time>
      </trkpt>
      <trkpt lat="43.15491" lon="5.68953">
        <ele>50.2</ele>
        <time>2015-05-06T07:21:08Z</time>
      </trkpt>
      <trkpt lat="43.15475" lon="5.68961">
        <ele>45.2</ele>
        <time>2015-05-06T07:21:27Z</time>
      </trkpt>
      <trkpt lat="43.15459" lon="5.6897">
        <ele>45.7</ele>
        <time>2015-05-06T07:21:44Z</time>
      </trkpt>
      <trkpt lat="43.15458" lon="5.68972">
        <ele>45</ele>
        <time>2015-05-06T07:21:45Z</time>
      </trkpt>
      <trkpt lat="43.15427" lon="5.6899">
        <ele>39</ele>
        <time>2015-05-06T07:22:24Z</time>
      </trkpt>
      <trkpt lat="43.1541" lon="5.68993">
        <ele>40.5</ele>
        <time>2015-05-06T07:22:40Z</time>
      </trkpt>
      <trkpt lat="43.15392" lon="5.68997">
        <ele>37.7</ele>
        <time>2015-05-06T07:22:58Z</time>
      </trkpt>
      <trkpt lat="43.15391" lon="5.68998">
        <ele>37.7</ele>
        <time>2015-05-06T07:22:59Z</time>
      </trkpt>
      <trkpt lat="43.15367" lon="5.69031">
        <ele>39.2</ele>
        <time>2015-05-06T07:23:36Z</time>
      </trkpt>
      <trkpt lat="43.15354" lon="5.69047">
        <ele>42.2</ele>
        <time>2015-05-06T07:23:53Z</time>
      </trkpt>
      <trkpt lat="43.15344" lon="5.69067">
        <ele>41.4</ele>
        <time>2015-05-06T07:24:13Z</time>
      </trkpt>
      <trkpt lat="43.15343" lon="5.69068">
        <ele>41.5</ele>
        <time>2015-05-06T07:24:14Z</time>
      </trkpt>
      <trkpt lat="43.15336" lon="5.69113">
        <ele>43</ele>
        <time>2015-05-06T07:33:18Z</time>
      </trkpt>
      <trkpt lat="43.15336" lon="5.69113">
        <ele>42.9</ele>
        <time>2015-05-06T07:33:19Z</time>
      </trkpt>
      <trkpt lat="43.15358" lon="5.69148">
        <ele>28.2</ele>
        <time>2015-05-06T07:33:58Z</time>
      </trkpt>
      <trkpt lat="43.1536" lon="5.69172">
        <ele>23.7</ele>
        <time>2015-05-06T07:34:17Z</time>
      </trkpt>
      <trkpt lat="43.15351" lon="5.69192">
        <ele>31.5</ele>
        <time>2015-05-06T07:34:28Z</time>
      </trkpt>
      <trkpt lat="43.1535" lon="5.69194">
        <ele>32</ele>
        <time>2015-05-06T07:34:29Z</time>
      </trkpt>
      <trkpt lat="43.1533" lon="5.69229">
        <ele>41.5</ele>
        <time>2015-05-06T07:34:56Z</time>
      </trkpt>
      <trkpt lat="43.15313" lon="5.69238">
        <ele>43.9</ele>
        <time>2015-05-06T07:35:16Z</time>
      </trkpt>
      <trkpt lat="43.15297" lon="5.69246">
        <ele>41.7</ele>
        <time>2015-05-06T07:35:34Z</time>
      </trkpt>
      <trkpt lat="43.15296" lon="5.69247">
        <ele>41.9</ele>
        <time>2015-05-06T07:35:35Z</time>
      </trkpt>
      <trkpt lat="43.15271" lon="5.69276">
        <ele>41.9</ele>
        <time>2015-05-06T07:36:11Z</time>
      </trkpt>
      <trkpt lat="43.15261" lon="5.69297">
        <ele>39.2</ele>
        <time>2015-05-06T07:36:31Z</time>
      </trkpt>
      <trkpt lat="43.15257" lon="5.69319">
        <ele>38.2</ele>
        <time>2015-05-06T07:36:48Z</time>
      </trkpt>
      <trkpt lat="43.15256" lon="5.69321">
        <ele>38</ele>
        <time>2015-05-06T07:36:49Z</time>
      </trkpt>
      <trkpt lat="43.15227" lon="5.69345">
        <ele>40</ele>
        <time>2015-05-06T07:37:19Z</time>
      </trkpt>
      <trkpt lat="43.1521" lon="5.69351">
        <ele>41.9</ele>
        <time>2015-05-06T07:37:37Z</time>
      </trkpt>
      <trkpt lat="43.15197" lon="5.69367">
        <ele>35.9</ele>
        <time>2015-05-06T07:38:26Z</time>
      </trkpt>
      <trkpt lat="43.15197" lon="5.69368">
        <ele>36</ele>
        <time>2015-05-06T07:38:27Z</time>
      </trkpt>
      <trkpt lat="43.15172" lon="5.694">
        <ele>26.3</ele>
        <time>2015-05-06T07:40:03Z</time>
      </trkpt>
      <trkpt lat="43.15172" lon="5.69401">
        <ele>26.3</ele>
        <time>2015-05-06T07:40:04Z</time>
      </trkpt>
      <trkpt lat="43.15143" lon="5.69426">
        <ele>17.5</ele>
        <time>2015-05-06T07:41:01Z</time>
      </trkpt>
      <trkpt lat="43.1514" lon="5.6945">
        <ele>16</ele>
        <time>2015-05-06T07:41:34Z</time>
      </trkpt>
      <trkpt lat="43.15139" lon="5.69451">
        <ele>16.2</ele>
        <time>2015-05-06T07:41:35Z</time>
      </trkpt>
      <trkpt lat="43.15109" lon="5.69434">
        <ele>12.8</ele>
        <time>2015-05-06T07:42:16Z</time>
      </trkpt>
      <trkpt lat="43.1511" lon="5.69409">
        <ele>9</ele>
        <time>2015-05-06T07:42:42Z</time>
      </trkpt>
      <trkpt lat="43.1511" lon="5.69408">
        <ele>9.1</ele>
        <time>2015-05-06T07:42:43Z</time>
      </trkpt>
      <trkpt lat="43.15078" lon="5.69419">
        <ele>29.2</ele>
        <time>2015-05-06T07:44:04Z</time>
      </trkpt>
      <trkpt lat="43.15077" lon="5.6942">
        <ele>29.3</ele>
        <time>2015-05-06T07:44:05Z</time>
      </trkpt>
      <trkpt lat="43.15066" lon="5.69438">
        <ele>35</ele>
        <time>2015-05-06T07:46:02Z</time>
      </trkpt>
      <trkpt lat="43.15039" lon="5.69468">
        <ele>37.5</ele>
        <time>2015-05-06T07:47:05Z</time>
      </trkpt>
      <trkpt lat="43.15038" lon="5.69469">
        <ele>37.9</ele>
        <time>2015-05-06T07:47:06Z</time>
      </trkpt>
      <trkpt lat="43.15011" lon="5.69496">
        <ele>40.2</ele>
        <time>2015-05-06T07:47:52Z</time>
      </trkpt>
      <trkpt lat="43.14995" lon="5.69505">
        <ele>41.2</ele>
        <time>2015-05-06T07:48:11Z</time>
      </trkpt>
      <trkpt lat="43.14994" lon="5.69504">
        <ele>41.7</ele>
        <time>2015-05-06T07:48:12Z</time>
      </trkpt>
      <trkpt lat="43.14963" lon="5.69516">
        <ele>32.5</ele>
        <time>2015-05-06T07:49:13Z</time>
      </trkpt>
      <trkpt lat="43.14963" lon="5.69517">
        <ele>32.5</ele>
        <time>2015-05-06T07:49:14Z</time>
      </trkpt>
      <trkpt lat="43.14933" lon="5.69541">
        <ele>37.5</ele>
        <time>2015-05-06T07:49:54Z</time>
      </trkpt>
      <trkpt lat="43.14919" lon="5.69556">
        <ele>33.5</ele>
        <time>2015-05-06T07:50:44Z</time>
      </trkpt>
      <trkpt lat="43.14919" lon="5.69557">
        <ele>33</ele>
        <time>2015-05-06T07:50:45Z</time>
      </trkpt>
      <trkpt lat="43.14901" lon="5.69561">
        <ele>36.2</ele>
        <time>2015-05-06T07:54:18Z</time>
      </trkpt>
      <trkpt lat="43.14886" lon="5.69549">
        <ele>31.7</ele>
        <time>2015-05-06T08:04:34Z</time>
      </trkpt>
      <trkpt lat="43.14854" lon="5.69531">
        <ele>32.2</ele>
        <time>2015-05-06T08:05:12Z</time>
      </trkpt>
      <trkpt lat="43.14839" lon="5.69519">
        <ele>33.2</ele>
        <time>2015-05-06T08:05:29Z</time>
      </trkpt>
      <trkpt lat="43.14824" lon="5.69506">
        <ele>31.6</ele>
        <time>2015-05-06T08:05:47Z</time>
      </trkpt>
      <trkpt lat="43.14823" lon="5.69505">
        <ele>31.2</ele>
        <time>2015-05-06T08:05:48Z</time>
      </trkpt>
      <trkpt lat="43.14795" lon="5.69481">
        <ele>32.5</ele>
        <time>2015-05-06T08:06:19Z</time>
      </trkpt>
      <trkpt lat="43.14781" lon="5.69466">
        <ele>32.9</ele>
        <time>2015-05-06T08:06:36Z</time>
      </trkpt>
      <trkpt lat="43.1477" lon="5.69447">
        <ele>32.2</ele>
        <time>2015-05-06T08:06:56Z</time>
      </trkpt>
      <trkpt lat="43.1477" lon="5.69446">
        <ele>32</ele>
        <time>2015-05-06T08:06:57Z</time>
      </trkpt>
      <trkpt lat="43.1474" lon="5.69427">
        <ele>29.7</ele>
        <time>2015-05-06T08:07:33Z</time>
      </trkpt>
      <trkpt lat="43.1473" lon="5.69447">
        <ele>20.8</ele>
        <time>2015-05-06T08:07:54Z</time>
      </trkpt>
      <trkpt lat="43.14721" lon="5.69467">
        <ele>20.7</ele>
        <time>2015-05-06T08:08:11Z</time>
      </trkpt>
      <trkpt lat="43.1472" lon="5.69468">
        <ele>20.5</ele>
        <time>2015-05-06T08:08:12Z</time>
      </trkpt>
      <trkpt lat="43.14725" lon="5.69512">
        <ele>7.8</ele>
        <time>2015-05-06T08:08:50Z</time>
      </trkpt>
      <trkpt lat="43.14716" lon="5.69532">
        <ele>9.3</ele>
        <time>2015-05-06T08:09:10Z</time>
      </trkpt>
      <trkpt lat="43.14699" lon="5.69531">
        <ele>10</ele>
        <time>2015-05-06T08:09:30Z</time>
      </trkpt>
      <trkpt lat="43.14698" lon="5.6953">
        <ele>10.1</ele>
        <time>2015-05-06T08:09:31Z</time>
      </trkpt>
      <trkpt lat="43.14666" lon="5.69513">
        <ele>15</ele>
        <time>2015-05-06T08:10:33Z</time>
      </trkpt>
      <trkpt lat="43.14665" lon="5.69513">
        <ele>15.1</ele>
        <time>2015-05-06T08:10:34Z</time>
      </trkpt>
      <trkpt lat="43.14654" lon="5.69469">
        <ele>13.6</ele>
        <time>2015-05-06T08:11:32Z</time>
      </trkpt>
      <trkpt lat="43.14636" lon="5.69467">
        <ele>16.7</ele>
        <time>2015-05-06T08:12:39Z</time>
      </trkpt>
      <trkpt lat="43.14636" lon="5.69467">
        <ele>16.7</ele>
        <time>2015-05-06T08:12:40Z</time>
      </trkpt>
      <trkpt lat="43.14608" lon="5.69465">
        <ele>25.7</ele>
        <time>2015-05-06T08:14:00Z</time>
      </trkpt>
      <trkpt lat="43.14608" lon="5.69464">
        <ele>25.7</ele>
        <time>2015-05-06T08:14:01Z</time>
      </trkpt>
      <trkpt lat="43.14578" lon="5.69443">
        <ele>24.8</ele>
        <time>2015-05-06T08:14:43Z</time>
      </trkpt>
      <trkpt lat="43.1456" lon="5.69443">
        <ele>24</ele>
        <time>2015-05-06T08:15:05Z</time>
      </trkpt>
      <trkpt lat="43.1456" lon="5.69444">
        <ele>24.2</ele>
        <time>2015-05-06T08:15:06Z</time>
      </trkpt>
      <trkpt lat="43.14539" lon="5.6948">
        <ele>26.6</ele>
        <time>2015-05-06T08:15:58Z</time>
      </trkpt>
      <trkpt lat="43.14525" lon="5.69495">
        <ele>29.2</ele>
        <time>2015-05-06T08:16:25Z</time>
      </trkpt>
      <trkpt lat="43.14525" lon="5.69496">
        <ele>28.6</ele>
        <time>2015-05-06T08:16:26Z</time>
      </trkpt>
      <trkpt lat="43.14497" lon="5.69523">
        <ele>32.9</ele>
        <time>2015-05-06T08:17:23Z</time>
      </trkpt>
      <trkpt lat="43.14481" lon="5.69532">
        <ele>33.4</ele>
        <time>2015-05-06T08:17:53Z</time>
      </trkpt>
      <trkpt lat="43.1448" lon="5.69533">
        <ele>32.7</ele>
        <time>2015-05-06T08:17:54Z</time>
      </trkpt>
      <trkpt lat="43.14449" lon="5.69551">
        <ele>36.2</ele>
        <time>2015-05-06T08:18:32Z</time>
      </trkpt>
      <trkpt lat="43.14432" lon="5.69554">
        <ele>39.5</ele>
        <time>2015-05-06T08:18:52Z</time>
      </trkpt>
      <trkpt lat="43.1442" lon="5.69572">
        <ele>45.4</ele>
        <time>2015-05-06T08:26:06Z</time>
      </trkpt>
      <trkpt lat="43.14419" lon="5.69573">
        <ele>45.2</ele>
        <time>2015-05-06T08:26:07Z</time>
      </trkpt>
      <trkpt lat="43.14401" lon="5.69612">
        <ele>38.2</ele>
        <time>2015-05-06T08:26:59Z</time>
      </trkpt>
      <trkpt lat="43.14393" lon="5.69634">
        <ele>35.9</ele>
        <time>2015-05-06T08:27:29Z</time>
      </trkpt>
      <trkpt lat="43.14393" lon="5.69634">
        <ele>35.5</ele>
        <time>2015-05-06T08:27:30Z</time>
      </trkpt>
      <trkpt lat="43.14377" lon="5.69676">
        <ele>26.7</ele>
        <time>2015-05-06T08:28:25Z</time>
      </trkpt>
      <trkpt lat="43.14369" lon="5.69698">
        <ele>21.2</ele>
        <time>2015-05-06T08:29:19Z</time>
      </trkpt>
      <trkpt lat="43.14369" lon="5.69698">
        <ele>21.2</ele>
        <time>2015-05-06T08:29:20Z</time>
      </trkpt>
      <trkpt lat="43.14396" lon="5.69727">
        <ele>18.5</ele>
        <time>2015-05-06T08:30:39Z</time>
      </trkpt>
      <trkpt lat="43.14396" lon="5.69728">
        <ele>18.7</ele>
        <time>2015-05-06T08:30:40Z</time>
      </trkpt>
      <trkpt lat="43.14409" lon="5.69773">
        <ele>26.7</ele>
        <time>2015-05-06T08:31:41Z</time>
      </trkpt>
      <trkpt lat="43.1441" lon="5.69773">
        <ele>26.5</ele>
        <time>2015-05-06T08:31:42Z</time>
      </trkpt>
      <trkpt lat="43.14425" lon="5.69815">
        <ele>28.1</ele>
        <time>2015-05-06T08:32:33Z</time>
      </trkpt>
      <trkpt lat="43.14437" lon="5.69834">
        <ele>28.7</ele>
        <time>2015-05-06T08:33:01Z</time>
      </trkpt>
      <trkpt lat="43.14437" lon="5.69834">
        <ele>28.7</ele>
        <time>2015-05-06T08:33:02Z</time>
      </trkpt>
      <trkpt lat="43.14449" lon="5.69878">
        <ele>31.5</ele>
        <time>2015-05-06T08:33:51Z</time>
      </trkpt>
      <trkpt lat="43.14447" lon="5.69903">
        <ele>34.2</ele>
        <time>2015-05-06T08:34:13Z</time>
      </trkpt>
      <trkpt lat="43.14447" lon="5.69903">
        <ele>34</ele>
        <time>2015-05-06T08:34:14Z</time>
      </trkpt>
      <trkpt lat="43.14432" lon="5.69946">
        <ele>37.4</ele>
        <time>2015-05-06T08:34:59Z</time>
      </trkpt>
      <trkpt lat="43.14429" lon="5.6997">
        <ele>40</ele>
        <time>2015-05-06T08:35:28Z</time>
      </trkpt>
      <trkpt lat="43.14429" lon="5.69971">
        <ele>40.2</ele>
        <time>2015-05-06T08:35:29Z</time>
      </trkpt>
      <trkpt lat="43.1443" lon="5.70018">
        <ele>44.5</ele>
        <time>2015-05-06T08:36:17Z</time>
      </trkpt>
      <trkpt lat="43.14427" lon="5.70042">
        <ele>44.2</ele>
        <time>2015-05-06T08:36:44Z</time>
      </trkpt>
      <trkpt lat="43.14426" lon="5.70043">
        <ele>44.2</ele>
        <time>2015-05-06T08:36:45Z</time>
      </trkpt>
      <trkpt lat="43.1442" lon="5.70089">
        <ele>53.7</ele>
        <time>2015-05-06T08:37:37Z</time>
      </trkpt>
      <trkpt lat="43.14415" lon="5.70112">
        <ele>52.9</ele>
        <time>2015-05-06T08:38:32Z</time>
      </trkpt>
      <trkpt lat="43.14415" lon="5.70113">
        <ele>52.4</ele>
        <time>2015-05-06T08:38:33Z</time>
      </trkpt>
      <trkpt lat="43.14412" lon="5.70159">
        <ele>47.4</ele>
        <time>2015-05-06T08:39:12Z</time>
      </trkpt>
      <trkpt lat="43.14421" lon="5.70181">
        <ele>44</ele>
        <time>2015-05-06T08:39:43Z</time>
      </trkpt>
      <trkpt lat="43.14422" lon="5.7018">
        <ele>44</ele>
        <time>2015-05-06T08:39:44Z</time>
      </trkpt>
      <trkpt lat="43.14444" lon="5.70216">
        <ele>42.9</ele>
        <time>2015-05-06T08:40:34Z</time>
      </trkpt>
      <trkpt lat="43.14454" lon="5.70236">
        <ele>38</ele>
        <time>2015-05-06T08:41:04Z</time>
      </trkpt>
      <trkpt lat="43.14454" lon="5.70237">
        <ele>38</ele>
        <time>2015-05-06T08:41:05Z</time>
      </trkpt>
      <trkpt lat="43.14466" lon="5.70281">
        <ele>35</ele>
        <time>2015-05-06T08:41:52Z</time>
      </trkpt>
      <trkpt lat="43.14476" lon="5.70301">
        <ele>33</ele>
        <time>2015-05-06T08:42:18Z</time>
      </trkpt>
      <trkpt lat="43.14476" lon="5.70301">
        <ele>32.7</ele>
        <time>2015-05-06T08:42:19Z</time>
      </trkpt>
      <trkpt lat="43.14497" lon="5.70339">
        <ele>37.7</ele>
        <time>2015-05-06T08:43:04Z</time>
      </trkpt>
      <trkpt lat="43.14512" lon="5.70348">
        <ele>37.9</ele>
        <time>2015-05-06T08:43:31Z</time>
      </trkpt>
      <trkpt lat="43.14513" lon="5.70349">
        <ele>37.4</ele>
        <time>2015-05-06T08:43:32Z</time>
      </trkpt>
      <trkpt lat="43.14538" lon="5.7038">
        <ele>34.7</ele>
        <time>2015-05-06T08:44:08Z</time>
      </trkpt>
      <trkpt lat="43.14548" lon="5.704">
        <ele>35.2</ele>
        <time>2015-05-06T08:44:27Z</time>
      </trkpt>
      <trkpt lat="43.14553" lon="5.70423">
        <ele>40.5</ele>
        <time>2015-05-06T08:44:50Z</time>
      </trkpt>
      <trkpt lat="43.14553" lon="5.70424">
        <ele>41.5</ele>
        <time>2015-05-06T08:44:51Z</time>
      </trkpt>
      <trkpt lat="43.14556" lon="5.7047">
        <ele>56</ele>
        <time>2015-05-06T08:45:52Z</time>
      </trkpt>
      <trkpt lat="43.14556" lon="5.7047">
        <ele>56.4</ele>
        <time>2015-05-06T08:45:53Z</time>
      </trkpt>
      <trkpt lat="43.14566" lon="5.7049">
        <ele>51.2</ele>
        <time>2015-05-06T08:46:59Z</time>
      </trkpt>
      <trkpt lat="43.14581" lon="5.70503">
        <ele>64</ele>
        <time>2015-05-06T08:49:59Z</time>
      </trkpt>
      <trkpt lat="43.14591" lon="5.70542">
        <ele>57.9</ele>
        <time>2015-05-06T08:50:53Z</time>
      </trkpt>
      <trkpt lat="43.14586" lon="5.70564">
        <ele>52.7</ele>
        <time>2015-05-06T08:51:13Z</time>
      </trkpt>
      <trkpt lat="43.14585" lon="5.70566">
        <ele>53.2</ele>
        <time>2015-05-06T08:51:14Z</time>
      </trkpt>
      <trkpt lat="43.14569" lon="5.70606">
        <ele>47.5</ele>
        <time>2015-05-06T08:51:48Z</time>
      </trkpt>
      <trkpt lat="43.14562" lon="5.70628">
        <ele>45.4</ele>
        <time>2015-05-06T08:52:05Z</time>
      </trkpt>
      <trkpt lat="43.14552" lon="5.70648">
        <ele>44.7</ele>
        <time>2015-05-06T08:52:22Z</time>
      </trkpt>
      <trkpt lat="43.14552" lon="5.70649">
        <ele>44.5</ele>
        <time>2015-05-06T08:52:23Z</time>
      </trkpt>
      <trkpt lat="43.14553" lon="5.70681">
        <ele>39.5</ele>
        <time>2015-05-06T08:53:22Z</time>
      </trkpt>
      <trkpt lat="43.1457" lon="5.7068">
        <ele>35.9</ele>
        <time>2015-05-06T08:53:46Z</time>
      </trkpt>
      <trkpt lat="43.14571" lon="5.7068">
        <ele>35.5</ele>
        <time>2015-05-06T08:53:47Z</time>
      </trkpt>
      <trkpt lat="43.14605" lon="5.70681">
        <ele>25.7</ele>
        <time>2015-05-06T08:54:27Z</time>
      </trkpt>
      <trkpt lat="43.14623" lon="5.70682">
        <ele>24.7</ele>
        <time>2015-05-06T08:54:47Z</time>
      </trkpt>
      <trkpt lat="43.14624" lon="5.70683">
        <ele>24.7</ele>
        <time>2015-05-06T08:54:48Z</time>
      </trkpt>
      <trkpt lat="43.14658" lon="5.70682">
        <ele>19.2</ele>
        <time>2015-05-06T08:55:40Z</time>
      </trkpt>
      <trkpt lat="43.14676" lon="5.70679">
        <ele>11.3</ele>
        <time>2015-05-06T08:56:03Z</time>
      </trkpt>
      <trkpt lat="43.14677" lon="5.70679">
        <ele>11</ele>
        <time>2015-05-06T08:56:04Z</time>
      </trkpt>
      <trkpt lat="43.14703" lon="5.70706">
        <ele>23.8</ele>
        <time>2015-05-06T08:57:01Z</time>
      </trkpt>
      <trkpt lat="43.14699" lon="5.7073">
        <ele>24.3</ele>
        <time>2015-05-06T09:03:01Z</time>
      </trkpt>
      <trkpt lat="43.14699" lon="5.70731">
        <ele>23.8</ele>
        <time>2015-05-06T09:03:02Z</time>
      </trkpt>
      <trkpt lat="43.14695" lon="5.70778">
        <ele>19</ele>
        <time>2015-05-06T09:03:48Z</time>
      </trkpt>
      <trkpt lat="43.14692" lon="5.70802">
        <ele>24.2</ele>
        <time>2015-05-06T09:04:10Z</time>
      </trkpt>
      <trkpt lat="43.14691" lon="5.70802">
        <ele>24.2</ele>
        <time>2015-05-06T09:04:11Z</time>
      </trkpt>
      <trkpt lat="43.14688" lon="5.70849">
        <ele>18.2</ele>
        <time>2015-05-06T09:04:57Z</time>
      </trkpt>
      <trkpt lat="43.14689" lon="5.70873">
        <ele>17.2</ele>
        <time>2015-05-06T09:05:18Z</time>
      </trkpt>
      <trkpt lat="43.1469" lon="5.70874">
        <ele>18.2</ele>
        <time>2015-05-06T09:05:19Z</time>
      </trkpt>
      <trkpt lat="43.14716" lon="5.70901">
        <ele>12.5</ele>
        <time>2015-05-06T09:06:08Z</time>
      </trkpt>
      <trkpt lat="43.14732" lon="5.70914">
        <ele>11.5</ele>
        <time>2015-05-06T09:06:32Z</time>
      </trkpt>
      <trkpt lat="43.14732" lon="5.70914">
        <ele>11.1</ele>
        <time>2015-05-06T09:06:33Z</time>
      </trkpt>
      <trkpt lat="43.14749" lon="5.70955">
        <ele>2.5</ele>
        <time>2015-05-06T09:07:29Z</time>
      </trkpt>
      <trkpt lat="43.14748" lon="5.70979">
        <ele>3.7</ele>
        <time>2015-05-06T09:07:45Z</time>
      </trkpt>
      <trkpt lat="43.14748" lon="5.7098">
        <ele>3.7</ele>
        <time>2015-05-06T09:07:46Z</time>
      </trkpt>
      <trkpt lat="43.14724" lon="5.70998">
        <ele>21.8</ele>
        <time>2015-05-06T09:08:47Z</time>
      </trkpt>
      <trkpt lat="43.14724" lon="5.70997">
        <ele>22.2</ele>
        <time>2015-05-06T09:08:48Z</time>
      </trkpt>
      <trkpt lat="43.14715" lon="5.7102">
        <ele>12.6</ele>
        <time>2015-05-06T09:11:07Z</time>
      </trkpt>
      <trkpt lat="43.14682" lon="5.71024">
        <ele>21.3</ele>
        <time>2015-05-06T09:11:57Z</time>
      </trkpt>
      <trkpt lat="43.14664" lon="5.71022">
        <ele>17.5</ele>
        <time>2015-05-06T09:12:17Z</time>
      </trkpt>
      <trkpt lat="43.14664" lon="5.71024">
        <ele>16.8</ele>
        <time>2015-05-06T09:12:18Z</time>
      </trkpt>
      <trkpt lat="43.1463" lon="5.71037">
        <ele>16.2</ele>
        <time>2015-05-06T09:13:00Z</time>
      </trkpt>
      <trkpt lat="43.14612" lon="5.71038">
        <ele>18.3</ele>
        <time>2015-05-06T09:13:18Z</time>
      </trkpt>
      <trkpt lat="43.14612" lon="5.71038">
        <ele>18.5</ele>
        <time>2015-05-06T09:13:19Z</time>
      </trkpt>
      <trkpt lat="43.14578" lon="5.71048">
        <ele>22.7</ele>
        <time>2015-05-06T09:14:05Z</time>
      </trkpt>
      <trkpt lat="43.14563" lon="5.71061">
        <ele>21.8</ele>
        <time>2015-05-06T09:14:31Z</time>
      </trkpt>
      <trkpt lat="43.14562" lon="5.71062">
        <ele>21.7</ele>
        <time>2015-05-06T09:14:32Z</time>
      </trkpt>
      <trkpt lat="43.1455" lon="5.71103">
        <ele>25.2</ele>
        <time>2015-05-06T09:15:11Z</time>
      </trkpt>
      <trkpt lat="43.14554" lon="5.71127">
        <ele>22.8</ele>
        <time>2015-05-06T09:15:30Z</time>
      </trkpt>
      <trkpt lat="43.14554" lon="5.71151">
        <ele>21.5</ele>
        <time>2015-05-06T09:15:51Z</time>
      </trkpt>
      <trkpt lat="43.14554" lon="5.71152">
        <ele>21.3</ele>
        <time>2015-05-06T09:15:52Z</time>
      </trkpt>
      <trkpt lat="43.1457" lon="5.71173">
        <ele>25.2</ele>
        <time>2015-05-06T09:18:13Z</time>
      </trkpt>
      <trkpt lat="43.14571" lon="5.71173">
        <ele>25.5</ele>
        <time>2015-05-06T09:18:14Z</time>
      </trkpt>
      <trkpt lat="43.146" lon="5.71196">
        <ele>28.7</ele>
        <time>2015-05-06T09:19:00Z</time>
      </trkpt>
      <trkpt lat="43.14615" lon="5.71209">
        <ele>30.2</ele>
        <time>2015-05-06T09:19:20Z</time>
      </trkpt>
      <trkpt lat="43.14616" lon="5.7121">
        <ele>30.8</ele>
        <time>2015-05-06T09:19:21Z</time>
      </trkpt>
      <trkpt lat="43.1464" lon="5.71241">
        <ele>35.2</ele>
        <time>2015-05-06T09:19:53Z</time>
      </trkpt>
      <trkpt lat="43.14653" lon="5.71258">
        <ele>40.9</ele>
        <time>2015-05-06T09:20:11Z</time>
      </trkpt>
      <trkpt lat="43.14663" lon="5.71278">
        <ele>40</ele>
        <time>2015-05-06T09:20:37Z</time>
      </trkpt>
      <trkpt lat="43.14663" lon="5.71279">
        <ele>40.2</ele>
        <time>2015-05-06T09:20:38Z</time>
      </trkpt>
      <trkpt lat="43.14683" lon="5.71316">
        <ele>42</ele>
        <time>2015-05-06T09:21:14Z</time>
      </trkpt>
      <trkpt lat="43.14696" lon="5.71333">
        <ele>43.9</ele>
        <time>2015-05-06T09:21:32Z</time>
      </trkpt>
      <trkpt lat="43.14709" lon="5.71349">
        <ele>49.4</ele>
        <time>2015-05-06T09:21:47Z</time>
      </trkpt>
      <trkpt lat="43.14711" lon="5.7135">
        <ele>49.4</ele>
        <time>2015-05-06T09:21:48Z</time>
      </trkpt>
      <trkpt lat="43.14737" lon="5.71379">
        <ele>51.2</ele>
        <time>2015-05-06T09:22:16Z</time>
      </trkpt>
      <trkpt lat="43.14751" lon="5.71394">
        <ele>47.2</ele>
        <time>2015-05-06T09:22:33Z</time>
      </trkpt>
      <trkpt lat="43.14765" lon="5.71406">
        <ele>48.2</ele>
        <time>2015-05-06T09:22:46Z</time>
      </trkpt>
      <trkpt lat="43.14777" lon="5.71424">
        <ele>47.7</ele>
        <time>2015-05-06T09:23:04Z</time>
      </trkpt>
      <trkpt lat="43.14778" lon="5.71425">
        <ele>47.9</ele>
        <time>2015-05-06T09:23:05Z</time>
      </trkpt>
      <trkpt lat="43.14796" lon="5.71464">
        <ele>40.7</ele>
        <time>2015-05-06T09:23:38Z</time>
      </trkpt>
      <trkpt lat="43.14808" lon="5.7148">
        <ele>38.2</ele>
        <time>2015-05-06T09:23:54Z</time>
      </trkpt>
      <trkpt lat="43.14822" lon="5.71493">
        <ele>39.9</ele>
        <time>2015-05-06T09:24:09Z</time>
      </trkpt>
      <trkpt lat="43.14823" lon="5.71494">
        <ele>39.7</ele>
        <time>2015-05-06T09:24:10Z</time>
      </trkpt>
      <trkpt lat="43.14842" lon="5.71529">
        <ele>28.2</ele>
        <time>2015-05-06T09:24:41Z</time>
      </trkpt>
      <trkpt lat="43.14853" lon="5.71547">
        <ele>35.7</ele>
        <time>2015-05-06T09:25:07Z</time>
      </trkpt>
      <trkpt lat="43.14865" lon="5.71565">
        <ele>36.5</ele>
        <time>2015-05-06T09:25:25Z</time>
      </trkpt>
      <trkpt lat="43.14866" lon="5.71565">
        <ele>36.5</ele>
        <time>2015-05-06T09:25:26Z</time>
      </trkpt>
      <trkpt lat="43.14882" lon="5.71607">
        <ele>34.2</ele>
        <time>2015-05-06T09:26:07Z</time>
      </trkpt>
      <trkpt lat="43.1488" lon="5.7163">
        <ele>38</ele>
        <time>2015-05-06T09:26:24Z</time>
      </trkpt>
      <trkpt lat="43.14874" lon="5.71652">
        <ele>48.7</ele>
        <time>2015-05-06T09:26:42Z</time>
      </trkpt>
      <trkpt lat="43.14873" lon="5.71654">
        <ele>49</ele>
        <time>2015-05-06T09:26:43Z</time>
      </trkpt>
      <trkpt lat="43.14862" lon="5.71696">
        <ele>47.7</ele>
        <time>2015-05-06T09:27:21Z</time>
      </trkpt>
      <trkpt lat="43.14854" lon="5.71716">
        <ele>50.5</ele>
        <time>2015-05-06T09:27:35Z</time>
      </trkpt>
      <trkpt lat="43.14846" lon="5.71737">
        <ele>56.4</ele>
        <time>2015-05-06T09:27:48Z</time>
      </trkpt>
      <trkpt lat="43.14845" lon="5.71738">
        <ele>56.7</ele>
        <time>2015-05-06T09:27:49Z</time>
      </trkpt>
      <trkpt lat="43.14842" lon="5.71783">
        <ele>54.5</ele>
        <time>2015-05-06T09:28:22Z</time>
      </trkpt>
      <trkpt lat="43.1484" lon="5.71808">
        <ele>54</ele>
        <time>2015-05-06T09:28:38Z</time>
      </trkpt>
      <trkpt lat="43.14839" lon="5.71832">
        <ele>54.4</ele>
        <time>2015-05-06T09:28:55Z</time>
      </trkpt>
      <trkpt lat="43.14839" lon="5.71834">
        <ele>54.4</ele>
        <time>2015-05-06T09:28:56Z</time>
      </trkpt>
      <trkpt lat="43.14863" lon="5.71865">
        <ele>58.5</ele>
        <time>2015-05-06T09:29:27Z</time>
      </trkpt>
      <trkpt lat="43.14876" lon="5.7188">
        <ele>56.2</ele>
        <time>2015-05-06T09:29:46Z</time>
      </trkpt>
      <trkpt lat="43.14878" lon="5.71904">
        <ele>59</ele>
        <time>2015-05-06T09:30:04Z</time>
      </trkpt>
      <trkpt lat="43.14878" lon="5.71905">
        <ele>60</ele>
        <time>2015-05-06T09:30:05Z</time>
      </trkpt>
      <trkpt lat="43.14878" lon="5.71929">
        <ele>56.2</ele>
        <time>2015-05-06T09:34:38Z</time>
      </trkpt>
      <trkpt lat="43.14881" lon="5.71975">
        <ele>30.7</ele>
        <time>2015-05-06T09:35:22Z</time>
      </trkpt>
      <trkpt lat="43.14872" lon="5.71995">
        <ele>33.2</ele>
        <time>2015-05-06T09:35:41Z</time>
      </trkpt>
      <trkpt lat="43.14871" lon="5.71995">
        <ele>33.5</ele>
        <time>2015-05-06T09:35:42Z</time>
      </trkpt>
      <trkpt lat="43.14841" lon="5.72018">
        <ele>52.2</ele>
        <time>2015-05-06T09:36:51Z</time>
      </trkpt>
      <trkpt lat="43.1484" lon="5.72018">
        <ele>52</ele>
        <time>2015-05-06T09:36:52Z</time>
      </trkpt>
      <trkpt lat="43.14808" lon="5.72033">
        <ele>68.1</ele>
        <time>2015-05-06T09:38:09Z</time>
      </trkpt>
      <trkpt lat="43.14807" lon="5.72034">
        <ele>68.4</ele>
        <time>2015-05-06T09:38:10Z</time>
      </trkpt>
      <trkpt lat="43.14775" lon="5.72046">
        <ele>64.3</ele>
        <time>2015-05-06T09:38:43Z</time>
      </trkpt>
      <trkpt lat="43.14759" lon="5.72053">
        <ele>59.2</ele>
        <time>2015-05-06T09:39:01Z</time>
      </trkpt>
      <trkpt lat="43.14741" lon="5.72056">
        <ele>63.2</ele>
        <time>2015-05-06T09:39:26Z</time>
      </trkpt>
      <trkpt lat="43.1474" lon="5.72056">
        <ele>64.1</ele>
        <time>2015-05-06T09:39:27Z</time>
      </trkpt>
      <trkpt lat="43.14706" lon="5.72063">
        <ele>72</ele>
        <time>2015-05-06T09:40:19Z</time>
      </trkpt>
      <trkpt lat="43.14691" lon="5.72075">
        <ele>72.5</ele>
        <time>2015-05-06T09:40:43Z</time>
      </trkpt>
      <trkpt lat="43.1469" lon="5.72076">
        <ele>72.6</ele>
        <time>2015-05-06T09:40:44Z</time>
      </trkpt>
      <trkpt lat="43.14658" lon="5.7209">
        <ele>80.3</ele>
        <time>2015-05-06T09:41:34Z</time>
      </trkpt>
      <trkpt lat="43.14642" lon="5.721">
        <ele>80</ele>
        <time>2015-05-06T09:41:50Z</time>
      </trkpt>
      <trkpt lat="43.14641" lon="5.72101">
        <ele>79.5</ele>
        <time>2015-05-06T09:41:51Z</time>
      </trkpt>
      <trkpt lat="43.14612" lon="5.72124">
        <ele>72.4</ele>
        <time>2015-05-06T09:42:23Z</time>
      </trkpt>
      <trkpt lat="43.14597" lon="5.72137">
        <ele>72</ele>
        <time>2015-05-06T09:42:43Z</time>
      </trkpt>
      <trkpt lat="43.14583" lon="5.72152">
        <ele>69.5</ele>
        <time>2015-05-06T09:42:59Z</time>
      </trkpt>
      <trkpt lat="43.14582" lon="5.72153">
        <ele>69.6</ele>
        <time>2015-05-06T09:43:00Z</time>
      </trkpt>
      <trkpt lat="43.14551" lon="5.72166">
        <ele>71</ele>
        <time>2015-05-06T09:43:32Z</time>
      </trkpt>
      <trkpt lat="43.14534" lon="5.72169">
        <ele>72.5</ele>
        <time>2015-05-06T09:43:54Z</time>
      </trkpt>
      <trkpt lat="43.14516" lon="5.72171">
        <ele>70.1</ele>
        <time>2015-05-06T09:44:13Z</time>
      </trkpt>
      <trkpt lat="43.14515" lon="5.72171">
        <ele>70</ele>
        <time>2015-05-06T09:44:14Z</time>
      </trkpt>
      <trkpt lat="43.14483" lon="5.72176">
        <ele>75</ele>
        <time>2015-05-06T09:44:50Z</time>
      </trkpt>
      <trkpt lat="43.14465" lon="5.72176">
        <ele>74.5</ele>
        <time>2015-05-06T09:45:13Z</time>
      </trkpt>
      <trkpt lat="43.14447" lon="5.72173">
        <ele>69.5</ele>
        <time>2015-05-06T09:45:34Z</time>
      </trkpt>
      <trkpt lat="43.14446" lon="5.72173">
        <ele>70</ele>
        <time>2015-05-06T09:45:35Z</time>
      </trkpt>
      <trkpt lat="43.14413" lon="5.72169">
        <ele>73.3</ele>
        <time>2015-05-06T09:46:14Z</time>
      </trkpt>
      <trkpt lat="43.14395" lon="5.72168">
        <ele>71.5</ele>
        <time>2015-05-06T09:46:35Z</time>
      </trkpt>
      <trkpt lat="43.14394" lon="5.72168">
        <ele>71.4</ele>
        <time>2015-05-06T09:46:36Z</time>
      </trkpt>
      <trkpt lat="43.1436" lon="5.72163">
        <ele>79.5</ele>
        <time>2015-05-06T09:47:11Z</time>
      </trkpt>
      <trkpt lat="43.14344" lon="5.7217">
        <ele>76</ele>
        <time>2015-05-06T09:47:28Z</time>
      </trkpt>
      <trkpt lat="43.14328" lon="5.72182">
        <ele>71.5</ele>
        <time>2015-05-06T09:47:44Z</time>
      </trkpt>
      <trkpt lat="43.14327" lon="5.72182">
        <ele>71.5</ele>
        <time>2015-05-06T09:47:45Z</time>
      </trkpt>
      <trkpt lat="43.14294" lon="5.72179">
        <ele>77.9</ele>
        <time>2015-05-06T09:48:30Z</time>
      </trkpt>
      <trkpt lat="43.14277" lon="5.72185">
        <ele>73.9</ele>
        <time>2015-05-06T09:48:54Z</time>
      </trkpt>
      <trkpt lat="43.14276" lon="5.72185">
        <ele>74</ele>
        <time>2015-05-06T09:48:55Z</time>
      </trkpt>
      <trkpt lat="43.14244" lon="5.72184">
        <ele>66.4</ele>
        <time>2015-05-06T09:49:33Z</time>
      </trkpt>
      <trkpt lat="43.1423" lon="5.72197">
        <ele>61.9</ele>
        <time>2015-05-06T09:49:51Z</time>
      </trkpt>
      <trkpt lat="43.14213" lon="5.72194">
        <ele>58.7</ele>
        <time>2015-05-06T09:50:09Z</time>
      </trkpt>
      <trkpt lat="43.14211" lon="5.72193">
        <ele>58.5</ele>
        <time>2015-05-06T09:50:10Z</time>
      </trkpt>
      <trkpt lat="43.14182" lon="5.722">
        <ele>54.4</ele>
        <time>2015-05-06T09:50:51Z</time>
      </trkpt>
      <trkpt lat="43.14169" lon="5.72215">
        <ele>49.5</ele>
        <time>2015-05-06T09:51:09Z</time>
      </trkpt>
      <trkpt lat="43.14152" lon="5.72221">
        <ele>56.4</ele>
        <time>2015-05-06T09:51:27Z</time>
      </trkpt>
      <trkpt lat="43.14151" lon="5.72221">
        <ele>55.2</ele>
        <time>2015-05-06T09:51:28Z</time>
      </trkpt>
      <trkpt lat="43.1412" lon="5.72237">
        <ele>50.7</ele>
        <time>2015-05-06T09:51:59Z</time>
      </trkpt>
      <trkpt lat="43.14114" lon="5.72259">
        <ele>44.7</ele>
        <time>2015-05-06T09:52:22Z</time>
      </trkpt>
      <trkpt lat="43.14104" lon="5.72278">
        <ele>47.7</ele>
        <time>2015-05-06T09:52:39Z</time>
      </trkpt>
      <trkpt lat="43.14103" lon="5.72279">
        <ele>48.9</ele>
        <time>2015-05-06T09:52:40Z</time>
      </trkpt>
      <trkpt lat="43.14076" lon="5.72308">
        <ele>51.2</ele>
        <time>2015-05-06T09:53:15Z</time>
      </trkpt>
      <trkpt lat="43.14062" lon="5.72322">
        <ele>44.5</ele>
        <time>2015-05-06T09:53:31Z</time>
      </trkpt>
      <trkpt lat="43.14046" lon="5.72333">
        <ele>52.2</ele>
        <time>2015-05-06T09:53:49Z</time>
      </trkpt>
      <trkpt lat="43.14046" lon="5.72334">
        <ele>52.2</ele>
        <time>2015-05-06T09:53:50Z</time>
      </trkpt>
      <trkpt lat="43.14016" lon="5.72356">
        <ele>46.2</ele>
        <time>2015-05-06T09:54:24Z</time>
      </trkpt>
      <trkpt lat="43.14" lon="5.72366">
        <ele>42.9</ele>
        <time>2015-05-06T09:54:40Z</time>
      </trkpt>
      <trkpt lat="43.13984" lon="5.72374">
        <ele>43.7</ele>
        <time>2015-05-06T09:54:57Z</time>
      </trkpt>
      <trkpt lat="43.13982" lon="5.72375">
        <ele>43.7</ele>
        <time>2015-05-06T09:54:58Z</time>
      </trkpt>
      <trkpt lat="43.13949" lon="5.72371">
        <ele>46.4</ele>
        <time>2015-05-06T09:55:30Z</time>
      </trkpt>
      <trkpt lat="43.13934" lon="5.72381">
        <ele>45.9</ele>
        <time>2015-05-06T09:55:46Z</time>
      </trkpt>
      <trkpt lat="43.13921" lon="5.72398">
        <ele>43.7</ele>
        <time>2015-05-06T09:56:02Z</time>
      </trkpt>
      <trkpt lat="43.1392" lon="5.72399">
        <ele>44.2</ele>
        <time>2015-05-06T09:56:03Z</time>
      </trkpt>
      <trkpt lat="43.13898" lon="5.72432">
        <ele>42.7</ele>
        <time>2015-05-06T09:56:33Z</time>
      </trkpt>
      <trkpt lat="43.1389" lon="5.72452">
        <ele>37.5</ele>
        <time>2015-05-06T09:56:49Z</time>
      </trkpt>
      <trkpt lat="43.1388" lon="5.72472">
        <ele>41</ele>
        <time>2015-05-06T09:57:05Z</time>
      </trkpt>
    </trkseg>
  </trk>
  <trk>
    <name><![CDATA[Sentier du Littoral_4]]></name>
    <trkseg>
      <trkpt lat="43.13663" lon="5.72509">
        <ele>24.6</ele>
        <time>2015-05-06T10:09:53Z</time>
      </trkpt>
      <trkpt lat="43.13663" lon="5.72509">
        <ele>24.6</ele>
        <time>2015-05-06T10:09:53Z</time>
      </trkpt>
    </trkseg>
  </trk>
  <trk>
    <name><![CDATA[Sentier du Littoral_5]]></name>
    <trkseg>
      <trkpt lat="43.13876" lon="5.72472">
        <ele>40.4</ele>
        <time>2015-05-06T11:28:11Z</time>
      </trkpt>
      <trkpt lat="43.13887" lon="5.72455">
        <ele>46.2</ele>
        <time>2015-05-06T11:28:31Z</time>
      </trkpt>
      <trkpt lat="43.13898" lon="5.72435">
        <ele>48.5</ele>
        <time>2015-05-06T11:28:47Z</time>
      </trkpt>
      <trkpt lat="43.13899" lon="5.72434">
        <ele>49</ele>
        <time>2015-05-06T11:28:48Z</time>
      </trkpt>
      <trkpt lat="43.13921" lon="5.724">
        <ele>44.9</ele>
        <time>2015-05-06T11:29:26Z</time>
      </trkpt>
      <trkpt lat="43.13931" lon="5.72381">
        <ele>48.2</ele>
        <time>2015-05-06T11:29:45Z</time>
      </trkpt>
      <trkpt lat="43.13947" lon="5.7237">
        <ele>44.5</ele>
        <time>2015-05-06T11:30:02Z</time>
      </trkpt>
      <trkpt lat="43.13948" lon="5.7237">
        <ele>45</ele>
        <time>2015-05-06T11:30:03Z</time>
      </trkpt>
      <trkpt lat="43.13981" lon="5.72376">
        <ele>48.7</ele>
        <time>2015-05-06T11:30:39Z</time>
      </trkpt>
      <trkpt lat="43.13998" lon="5.72368">
        <ele>47.9</ele>
        <time>2015-05-06T11:30:57Z</time>
      </trkpt>
      <trkpt lat="43.14014" lon="5.72358">
        <ele>45.5</ele>
        <time>2015-05-06T11:31:16Z</time>
      </trkpt>
      <trkpt lat="43.14014" lon="5.72357">
        <ele>45.5</ele>
        <time>2015-05-06T11:31:17Z</time>
      </trkpt>
      <trkpt lat="43.14045" lon="5.72336">
        <ele>48.9</ele>
        <time>2015-05-06T11:31:53Z</time>
      </trkpt>
      <trkpt lat="43.14061" lon="5.72324">
        <ele>51.4</ele>
        <time>2015-05-06T11:32:15Z</time>
      </trkpt>
      <trkpt lat="43.14075" lon="5.72311">
        <ele>51.4</ele>
        <time>2015-05-06T11:32:36Z</time>
      </trkpt>
      <trkpt lat="43.14076" lon="5.7231">
        <ele>51.5</ele>
        <time>2015-05-06T11:32:37Z</time>
      </trkpt>
      <trkpt lat="43.14102" lon="5.72281">
        <ele>56.4</ele>
        <time>2015-05-06T11:33:14Z</time>
      </trkpt>
      <trkpt lat="43.14112" lon="5.72262">
        <ele>55.7</ele>
        <time>2015-05-06T11:33:35Z</time>
      </trkpt>
      <trkpt lat="43.14123" lon="5.72242">
        <ele>54.2</ele>
        <time>2015-05-06T11:33:59Z</time>
      </trkpt>
      <trkpt lat="43.14123" lon="5.72241">
        <ele>54.2</ele>
        <time>2015-05-06T11:34:00Z</time>
      </trkpt>
      <trkpt lat="43.14154" lon="5.72224">
        <ele>55.5</ele>
        <time>2015-05-06T11:34:38Z</time>
      </trkpt>
      <trkpt lat="43.14171" lon="5.72216">
        <ele>55.9</ele>
        <time>2015-05-06T11:34:53Z</time>
      </trkpt>
      <trkpt lat="43.14184" lon="5.72198">
        <ele>59</ele>
        <time>2015-05-06T11:35:16Z</time>
      </trkpt>
      <trkpt lat="43.14184" lon="5.72198">
        <ele>58.9</ele>
        <time>2015-05-06T11:35:17Z</time>
      </trkpt>
      <trkpt lat="43.14215" lon="5.72194">
        <ele>57.5</ele>
        <time>2015-05-06T11:36:00Z</time>
      </trkpt>
      <trkpt lat="43.14232" lon="5.72198">
        <ele>68.8</ele>
        <time>2015-05-06T11:36:17Z</time>
      </trkpt>
      <trkpt lat="43.14233" lon="5.72198">
        <ele>69.1</ele>
        <time>2015-05-06T11:36:18Z</time>
      </trkpt>
      <trkpt lat="43.14265" lon="5.72195">
        <ele>67.5</ele>
        <time>2015-05-06T11:37:08Z</time>
      </trkpt>
      <trkpt lat="43.14282" lon="5.7219">
        <ele>84.5</ele>
        <time>2015-05-06T11:37:41Z</time>
      </trkpt>
      <trkpt lat="43.14283" lon="5.7219">
        <ele>85</ele>
        <time>2015-05-06T11:37:42Z</time>
      </trkpt>
      <trkpt lat="43.14317" lon="5.72189">
        <ele>72.4</ele>
        <time>2015-05-06T11:38:35Z</time>
      </trkpt>
      <trkpt lat="43.14333" lon="5.72186">
        <ele>76.9</ele>
        <time>2015-05-06T11:38:47Z</time>
      </trkpt>
      <trkpt lat="43.14335" lon="5.72185">
        <ele>77.6</ele>
        <time>2015-05-06T11:38:48Z</time>
      </trkpt>
      <trkpt lat="43.14368" lon="5.72176">
        <ele>73</ele>
        <time>2015-05-06T11:39:28Z</time>
      </trkpt>
      <trkpt lat="43.14385" lon="5.72176">
        <ele>79.6</ele>
        <time>2015-05-06T11:39:41Z</time>
      </trkpt>
      <trkpt lat="43.14402" lon="5.72173">
        <ele>80</ele>
        <time>2015-05-06T11:39:58Z</time>
      </trkpt>
      <trkpt lat="43.14404" lon="5.72173">
        <ele>81</ele>
        <time>2015-05-06T11:39:59Z</time>
      </trkpt>
      <trkpt lat="43.14437" lon="5.72176">
        <ele>78.3</ele>
        <time>2015-05-06T11:40:40Z</time>
      </trkpt>
      <trkpt lat="43.14454" lon="5.72175">
        <ele>75.1</ele>
        <time>2015-05-06T11:41:01Z</time>
      </trkpt>
      <trkpt lat="43.14455" lon="5.72174">
        <ele>75</ele>
        <time>2015-05-06T11:41:02Z</time>
      </trkpt>
      <trkpt lat="43.14473" lon="5.72177">
        <ele>76.1</ele>
        <time>2015-05-06T11:44:06Z</time>
      </trkpt>
      <trkpt lat="43.14507" lon="5.72174">
        <ele>77.5</ele>
        <time>2015-05-06T11:44:43Z</time>
      </trkpt>
      <trkpt lat="43.14525" lon="5.7217">
        <ele>79.5</ele>
        <time>2015-05-06T11:45:00Z</time>
      </trkpt>
      <trkpt lat="43.14542" lon="5.72166">
        <ele>81</ele>
        <time>2015-05-06T11:45:15Z</time>
      </trkpt>
      <trkpt lat="43.14543" lon="5.72166">
        <ele>81.3</ele>
        <time>2015-05-06T11:45:16Z</time>
      </trkpt>
      <trkpt lat="43.14577" lon="5.72159">
        <ele>76.5</ele>
        <time>2015-05-06T11:45:54Z</time>
      </trkpt>
      <trkpt lat="43.14592" lon="5.72147">
        <ele>85.4</ele>
        <time>2015-05-06T11:46:13Z</time>
      </trkpt>
      <trkpt lat="43.14605" lon="5.72132">
        <ele>84.4</ele>
        <time>2015-05-06T11:46:30Z</time>
      </trkpt>
      <trkpt lat="43.14606" lon="5.72131">
        <ele>84.5</ele>
        <time>2015-05-06T11:46:31Z</time>
      </trkpt>
      <trkpt lat="43.14635" lon="5.72108">
        <ele>83.1</ele>
        <time>2015-05-06T11:47:04Z</time>
      </trkpt>
      <trkpt lat="43.14651" lon="5.72097">
        <ele>82.6</ele>
        <time>2015-05-06T11:47:24Z</time>
      </trkpt>
      <trkpt lat="43.14666" lon="5.72087">
        <ele>79.6</ele>
        <time>2015-05-06T11:47:58Z</time>
      </trkpt>
      <trkpt lat="43.14667" lon="5.72086">
        <ele>79.3</ele>
        <time>2015-05-06T11:47:59Z</time>
      </trkpt>
      <trkpt lat="43.14699" lon="5.72071">
        <ele>81.9</ele>
        <time>2015-05-06T11:49:07Z</time>
      </trkpt>
      <trkpt lat="43.14699" lon="5.7207">
        <ele>81.4</ele>
        <time>2015-05-06T11:49:08Z</time>
      </trkpt>
      <trkpt lat="43.14733" lon="5.72058">
        <ele>76</ele>
        <time>2015-05-06T11:50:01Z</time>
      </trkpt>
      <trkpt lat="43.1475" lon="5.72053">
        <ele>66.5</ele>
        <time>2015-05-06T11:50:25Z</time>
      </trkpt>
      <trkpt lat="43.14751" lon="5.72052">
        <ele>66.3</ele>
        <time>2015-05-06T11:50:26Z</time>
      </trkpt>
      <trkpt lat="43.14784" lon="5.7204">
        <ele>64.5</ele>
        <time>2015-05-06T11:51:08Z</time>
      </trkpt>
      <trkpt lat="43.14801" lon="5.72037">
        <ele>67.3</ele>
        <time>2015-05-06T11:51:29Z</time>
      </trkpt>
      <trkpt lat="43.14802" lon="5.72036">
        <ele>67.4</ele>
        <time>2015-05-06T11:51:30Z</time>
      </trkpt>
      <trkpt lat="43.14836" lon="5.72036">
        <ele>72.1</ele>
        <time>2015-05-06T11:53:02Z</time>
      </trkpt>
      <trkpt lat="43.14837" lon="5.72036">
        <ele>72.4</ele>
        <time>2015-05-06T11:53:03Z</time>
      </trkpt>
      <trkpt lat="43.14864" lon="5.72006">
        <ele>56.2</ele>
        <time>2015-05-06T11:54:06Z</time>
      </trkpt>
      <trkpt lat="43.14864" lon="5.72006">
        <ele>57.4</ele>
        <time>2015-05-06T11:54:07Z</time>
      </trkpt>
      <trkpt lat="43.14883" lon="5.72005">
        <ele>44.5</ele>
        <time>2015-05-06T11:56:41Z</time>
      </trkpt>
      <trkpt lat="43.1491" lon="5.71992">
        <ele>40.7</ele>
        <time>2015-05-06T11:56:54Z</time>
      </trkpt>
      <trkpt lat="43.14894" lon="5.72066">
        <ele>34.2</ele>
        <time>2015-05-06T11:57:06Z</time>
      </trkpt>
      <trkpt lat="43.14909" lon="5.72079">
        <ele>56.2</ele>
        <time>2015-05-06T11:57:50Z</time>
      </trkpt>
      <trkpt lat="43.14911" lon="5.72079">
        <ele>55.2</ele>
        <time>2015-05-06T11:57:51Z</time>
      </trkpt>
      <trkpt lat="43.14944" lon="5.72077">
        <ele>68.5</ele>
        <time>2015-05-06T11:58:20Z</time>
      </trkpt>
      <trkpt lat="43.14962" lon="5.72073">
        <ele>63.5</ele>
        <time>2015-05-06T11:58:35Z</time>
      </trkpt>
      <trkpt lat="43.14971" lon="5.72052">
        <ele>64.3</ele>
        <time>2015-05-06T11:58:58Z</time>
      </trkpt>
      <trkpt lat="43.14972" lon="5.72051">
        <ele>64.6</ele>
        <time>2015-05-06T11:58:59Z</time>
      </trkpt>
      <trkpt lat="43.15003" lon="5.72031">
        <ele>77.5</ele>
        <time>2015-05-06T11:59:35Z</time>
      </trkpt>
      <trkpt lat="43.15019" lon="5.72029">
        <ele>79</ele>
        <time>2015-05-06T11:59:50Z</time>
      </trkpt>
      <trkpt lat="43.15036" lon="5.72025">
        <ele>76</ele>
        <time>2015-05-06T12:00:06Z</time>
      </trkpt>
      <trkpt lat="43.15037" lon="5.72024">
        <ele>75</ele>
        <time>2015-05-06T12:00:07Z</time>
      </trkpt>
      <trkpt lat="43.1507" lon="5.72011">
        <ele>71.3</ele>
        <time>2015-05-06T12:00:40Z</time>
      </trkpt>
      <trkpt lat="43.15087" lon="5.72017">
        <ele>64.8</ele>
        <time>2015-05-06T12:01:01Z</time>
      </trkpt>
      <trkpt lat="43.15104" lon="5.72026">
        <ele>65.4</ele>
        <time>2015-05-06T12:01:18Z</time>
      </trkpt>
      <trkpt lat="43.15104" lon="5.72026">
        <ele>65.6</ele>
        <time>2015-05-06T12:01:19Z</time>
      </trkpt>
      <trkpt lat="43.15121" lon="5.72067">
        <ele>60.9</ele>
        <time>2015-05-06T12:02:02Z</time>
      </trkpt>
      <trkpt lat="43.15123" lon="5.7209">
        <ele>66.1</ele>
        <time>2015-05-06T12:02:24Z</time>
      </trkpt>
      <trkpt lat="43.15123" lon="5.72091">
        <ele>66</ele>
        <time>2015-05-06T12:02:25Z</time>
      </trkpt>
      <trkpt lat="43.15106" lon="5.72129">
        <ele>63.5</ele>
        <time>2015-05-06T12:03:11Z</time>
      </trkpt>
      <trkpt lat="43.15104" lon="5.72153">
        <ele>76.5</ele>
        <time>2015-05-06T12:04:00Z</time>
      </trkpt>
      <trkpt lat="43.15104" lon="5.72154">
        <ele>76.8</ele>
        <time>2015-05-06T12:04:01Z</time>
      </trkpt>
      <trkpt lat="43.15132" lon="5.72183">
        <ele>92.9</ele>
        <time>2015-05-06T12:04:55Z</time>
      </trkpt>
      <trkpt lat="43.15147" lon="5.72195">
        <ele>95.3</ele>
        <time>2015-05-06T12:05:17Z</time>
      </trkpt>
      <trkpt lat="43.15148" lon="5.72195">
        <ele>96</ele>
        <time>2015-05-06T12:05:18Z</time>
      </trkpt>
      <trkpt lat="43.1518" lon="5.72213">
        <ele>99.6</ele>
        <time>2015-05-06T12:05:57Z</time>
      </trkpt>
      <trkpt lat="43.15196" lon="5.72221">
        <ele>100</ele>
        <time>2015-05-06T12:06:16Z</time>
      </trkpt>
      <trkpt lat="43.15214" lon="5.72226">
        <ele>101.9</ele>
        <time>2015-05-06T12:07:02Z</time>
      </trkpt>
      <trkpt lat="43.15214" lon="5.72226">
        <ele>101.9</ele>
        <time>2015-05-06T12:07:03Z</time>
      </trkpt>
      <trkpt lat="43.15232" lon="5.72231">
        <ele>101.6</ele>
        <time>2015-05-06T12:10:27Z</time>
      </trkpt>
      <trkpt lat="43.15266" lon="5.72237">
        <ele>104.5</ele>
        <time>2015-05-06T12:10:59Z</time>
      </trkpt>
      <trkpt lat="43.15283" lon="5.72241">
        <ele>103</ele>
        <time>2015-05-06T12:11:18Z</time>
      </trkpt>
      <trkpt lat="43.15301" lon="5.72244">
        <ele>102.8</ele>
        <time>2015-05-06T12:11:36Z</time>
      </trkpt>
      <trkpt lat="43.15302" lon="5.72244">
        <ele>103.5</ele>
        <time>2015-05-06T12:11:37Z</time>
      </trkpt>
      <trkpt lat="43.15324" lon="5.72209">
        <ele>96.8</ele>
        <time>2015-05-06T12:12:22Z</time>
      </trkpt>
      <trkpt lat="43.15341" lon="5.72205">
        <ele>96.5</ele>
        <time>2015-05-06T12:12:39Z</time>
      </trkpt>
      <trkpt lat="43.15343" lon="5.72205">
        <ele>96.9</ele>
        <time>2015-05-06T12:12:40Z</time>
      </trkpt>
      <trkpt lat="43.15376" lon="5.72198">
        <ele>97.6</ele>
        <time>2015-05-06T12:13:15Z</time>
      </trkpt>
      <trkpt lat="43.15392" lon="5.72188">
        <ele>101</ele>
        <time>2015-05-06T12:13:28Z</time>
      </trkpt>
      <trkpt lat="43.15405" lon="5.72172">
        <ele>102.9</ele>
        <time>2015-05-06T12:13:44Z</time>
      </trkpt>
      <trkpt lat="43.15406" lon="5.7217">
        <ele>102.5</ele>
        <time>2015-05-06T12:13:45Z</time>
      </trkpt>
      <trkpt lat="43.1543" lon="5.7215">
        <ele>95.1</ele>
        <time>2015-05-06T12:15:09Z</time>
      </trkpt>
      <trkpt lat="43.15431" lon="5.7215">
        <ele>95</ele>
        <time>2015-05-06T12:15:10Z</time>
      </trkpt>
      <trkpt lat="43.15463" lon="5.72152">
        <ele>96</ele>
        <time>2015-05-06T12:15:43Z</time>
      </trkpt>
      <trkpt lat="43.15481" lon="5.72152">
        <ele>95.9</ele>
        <time>2015-05-06T12:16:01Z</time>
      </trkpt>
      <trkpt lat="43.15499" lon="5.72155">
        <ele>94.4</ele>
        <time>2015-05-06T12:16:19Z</time>
      </trkpt>
      <trkpt lat="43.15499" lon="5.72155">
        <ele>94.1</ele>
        <time>2015-05-06T12:16:20Z</time>
      </trkpt>
      <trkpt lat="43.15528" lon="5.72177">
        <ele>89.5</ele>
        <time>2015-05-06T12:16:52Z</time>
      </trkpt>
      <trkpt lat="43.15541" lon="5.72194">
        <ele>87.5</ele>
        <time>2015-05-06T12:17:08Z</time>
      </trkpt>
      <trkpt lat="43.15557" lon="5.72199">
        <ele>87.1</ele>
        <time>2015-05-06T12:17:26Z</time>
      </trkpt>
      <trkpt lat="43.15558" lon="5.72198">
        <ele>87</ele>
        <time>2015-05-06T12:17:27Z</time>
      </trkpt>
      <trkpt lat="43.15589" lon="5.72182">
        <ele>84</ele>
        <time>2015-05-06T12:17:56Z</time>
      </trkpt>
      <trkpt lat="43.15606" lon="5.72179">
        <ele>86.8</ele>
        <time>2015-05-06T12:18:11Z</time>
      </trkpt>
      <trkpt lat="43.15622" lon="5.72171">
        <ele>87.8</ele>
        <time>2015-05-06T12:18:27Z</time>
      </trkpt>
      <trkpt lat="43.15623" lon="5.72171">
        <ele>88</ele>
        <time>2015-05-06T12:18:28Z</time>
      </trkpt>
      <trkpt lat="43.15652" lon="5.72147">
        <ele>77.5</ele>
        <time>2015-05-06T12:18:58Z</time>
      </trkpt>
      <trkpt lat="43.15661" lon="5.72127">
        <ele>77</ele>
        <time>2015-05-06T12:19:14Z</time>
      </trkpt>
      <trkpt lat="43.15674" lon="5.7211">
        <ele>76.6</ele>
        <time>2015-05-06T12:19:28Z</time>
      </trkpt>
      <trkpt lat="43.15675" lon="5.7211">
        <ele>76.8</ele>
        <time>2015-05-06T12:19:29Z</time>
      </trkpt>
      <trkpt lat="43.15682" lon="5.72064">
        <ele>73.9</ele>
        <time>2015-05-06T12:19:58Z</time>
      </trkpt>
      <trkpt lat="43.15685" lon="5.72039">
        <ele>72.3</ele>
        <time>2015-05-06T12:20:14Z</time>
      </trkpt>
      <trkpt lat="43.15688" lon="5.72016">
        <ele>70</ele>
        <time>2015-05-06T12:20:29Z</time>
      </trkpt>
      <trkpt lat="43.15688" lon="5.72014">
        <ele>70</ele>
        <time>2015-05-06T12:20:30Z</time>
      </trkpt>
      <trkpt lat="43.15693" lon="5.71968">
        <ele>63</ele>
        <time>2015-05-06T12:21:01Z</time>
      </trkpt>
      <trkpt lat="43.15696" lon="5.71945">
        <ele>59</ele>
        <time>2015-05-06T12:21:16Z</time>
      </trkpt>
      <trkpt lat="43.15699" lon="5.71921">
        <ele>57.4</ele>
        <time>2015-05-06T12:21:31Z</time>
      </trkpt>
      <trkpt lat="43.15699" lon="5.71919">
        <ele>57.2</ele>
        <time>2015-05-06T12:21:32Z</time>
      </trkpt>
      <trkpt lat="43.15704" lon="5.71875">
        <ele>56.9</ele>
        <time>2015-05-06T12:21:58Z</time>
      </trkpt>
      <trkpt lat="43.15708" lon="5.71851">
        <ele>58.2</ele>
        <time>2015-05-06T12:22:16Z</time>
      </trkpt>
      <trkpt lat="43.15713" lon="5.71829">
        <ele>55.5</ele>
        <time>2015-05-06T12:22:32Z</time>
      </trkpt>
      <trkpt lat="43.15714" lon="5.71827">
        <ele>55.5</ele>
        <time>2015-05-06T12:22:33Z</time>
      </trkpt>
      <trkpt lat="43.15722" lon="5.71782">
        <ele>57.9</ele>
        <time>2015-05-06T12:23:07Z</time>
      </trkpt>
      <trkpt lat="43.15731" lon="5.71762">
        <ele>50.5</ele>
        <time>2015-05-06T12:23:23Z</time>
      </trkpt>
      <trkpt lat="43.15734" lon="5.71739">
        <ele>50</ele>
        <time>2015-05-06T12:23:39Z</time>
      </trkpt>
      <trkpt lat="43.15734" lon="5.71737">
        <ele>50</ele>
        <time>2015-05-06T12:23:40Z</time>
      </trkpt>
      <trkpt lat="43.15725" lon="5.71693">
        <ele>52.2</ele>
        <time>2015-05-06T12:24:04Z</time>
      </trkpt>
      <trkpt lat="43.15711" lon="5.71678">
        <ele>46.9</ele>
        <time>2015-05-06T12:24:21Z</time>
      </trkpt>
      <trkpt lat="43.157" lon="5.7166">
        <ele>46.2</ele>
        <time>2015-05-06T12:24:49Z</time>
      </trkpt>
      <trkpt lat="43.15699" lon="5.71659">
        <ele>46</ele>
        <time>2015-05-06T12:24:50Z</time>
      </trkpt>
      <trkpt lat="43.15675" lon="5.71627">
        <ele>49.7</ele>
        <time>2015-05-06T12:25:19Z</time>
      </trkpt>
      <trkpt lat="43.15661" lon="5.71612">
        <ele>52.2</ele>
        <time>2015-05-06T12:25:46Z</time>
      </trkpt>
      <trkpt lat="43.15651" lon="5.71592">
        <ele>53.9</ele>
        <time>2015-05-06T12:26:30Z</time>
      </trkpt>
      <trkpt lat="43.1565" lon="5.71592">
        <ele>54.2</ele>
        <time>2015-05-06T12:26:31Z</time>
      </trkpt>
      <trkpt lat="43.15627" lon="5.71568">
        <ele>72</ele>
        <time>2015-05-06T12:27:13Z</time>
      </trkpt>
      <trkpt lat="43.15646" lon="5.7153">
        <ele>79.5</ele>
        <time>2015-05-06T12:27:34Z</time>
      </trkpt>
      <trkpt lat="43.15647" lon="5.71508">
        <ele>76.3</ele>
        <time>2015-05-06T12:27:39Z</time>
      </trkpt>
      <trkpt lat="43.15645" lon="5.71484">
        <ele>55.4</ele>
        <time>2015-05-06T12:27:50Z</time>
      </trkpt>
      <trkpt lat="43.15661" lon="5.71472">
        <ele>40</ele>
        <time>2015-05-06T12:28:16Z</time>
      </trkpt>
      <trkpt lat="43.15671" lon="5.71453">
        <ele>37.5</ele>
        <time>2015-05-06T12:28:35Z</time>
      </trkpt>
      <trkpt lat="43.15671" lon="5.71452">
        <ele>37.5</ele>
        <time>2015-05-06T12:28:36Z</time>
      </trkpt>
      <trkpt lat="43.15686" lon="5.7141">
        <ele>41.7</ele>
        <time>2015-05-06T12:29:15Z</time>
      </trkpt>
      <trkpt lat="43.15689" lon="5.71386">
        <ele>42.5</ele>
        <time>2015-05-06T12:29:31Z</time>
      </trkpt>
      <trkpt lat="43.15691" lon="5.71362">
        <ele>45.5</ele>
        <time>2015-05-06T12:29:47Z</time>
      </trkpt>
      <trkpt lat="43.15691" lon="5.7136">
        <ele>45.4</ele>
        <time>2015-05-06T12:29:48Z</time>
      </trkpt>
      <trkpt lat="43.157" lon="5.71314">
        <ele>44</ele>
        <time>2015-05-06T12:30:23Z</time>
      </trkpt>
      <trkpt lat="43.15699" lon="5.7129">
        <ele>45.4</ele>
        <time>2015-05-06T12:30:40Z</time>
      </trkpt>
      <trkpt lat="43.15699" lon="5.71268">
        <ele>49.7</ele>
        <time>2015-05-06T12:30:54Z</time>
      </trkpt>
      <trkpt lat="43.15698" lon="5.71265">
        <ele>50.2</ele>
        <time>2015-05-06T12:30:55Z</time>
      </trkpt>
      <trkpt lat="43.15701" lon="5.71221">
        <ele>43.9</ele>
        <time>2015-05-06T12:31:24Z</time>
      </trkpt>
      <trkpt lat="43.15702" lon="5.71198">
        <ele>43.2</ele>
        <time>2015-05-06T12:31:39Z</time>
      </trkpt>
      <trkpt lat="43.15706" lon="5.71175">
        <ele>43.4</ele>
        <time>2015-05-06T12:31:52Z</time>
      </trkpt>
      <trkpt lat="43.1571" lon="5.71152">
        <ele>45.4</ele>
        <time>2015-05-06T12:32:04Z</time>
      </trkpt>
      <trkpt lat="43.15711" lon="5.7115">
        <ele>45.5</ele>
        <time>2015-05-06T12:32:05Z</time>
      </trkpt>
      <trkpt lat="43.15723" lon="5.71107">
        <ele>44.9</ele>
        <time>2015-05-06T12:32:33Z</time>
      </trkpt>
      <trkpt lat="43.15726" lon="5.71083">
        <ele>43.7</ele>
        <time>2015-05-06T12:32:47Z</time>
      </trkpt>
      <trkpt lat="43.15727" lon="5.71059">
        <ele>42.7</ele>
        <time>2015-05-06T12:33:03Z</time>
      </trkpt>
      <trkpt lat="43.15729" lon="5.71035">
        <ele>45.7</ele>
        <time>2015-05-06T12:33:18Z</time>
      </trkpt>
      <trkpt lat="43.15729" lon="5.71033">
        <ele>45.9</ele>
        <time>2015-05-06T12:33:19Z</time>
      </trkpt>
      <trkpt lat="43.15743" lon="5.70992">
        <ele>42.5</ele>
        <time>2015-05-06T12:35:19Z</time>
      </trkpt>
      <trkpt lat="43.15744" lon="5.70991">
        <ele>42.2</ele>
        <time>2015-05-06T12:35:20Z</time>
      </trkpt>
      <trkpt lat="43.15769" lon="5.70959">
        <ele>40.7</ele>
        <time>2015-05-06T12:36:01Z</time>
      </trkpt>
      <trkpt lat="43.15781" lon="5.70942">
        <ele>53.4</ele>
        <time>2015-05-06T12:38:36Z</time>
      </trkpt>
      <trkpt lat="43.15782" lon="5.70941">
        <ele>53.2</ele>
        <time>2015-05-06T12:38:37Z</time>
      </trkpt>
      <trkpt lat="43.15802" lon="5.70902">
        <ele>46.7</ele>
        <time>2015-05-06T12:39:24Z</time>
      </trkpt>
      <trkpt lat="43.15812" lon="5.70882">
        <ele>48.2</ele>
        <time>2015-05-06T12:39:41Z</time>
      </trkpt>
      <trkpt lat="43.15812" lon="5.70881">
        <ele>48.2</ele>
        <time>2015-05-06T12:39:42Z</time>
      </trkpt>
      <trkpt lat="43.15827" lon="5.70838">
        <ele>48.7</ele>
        <time>2015-05-06T12:40:20Z</time>
      </trkpt>
      <trkpt lat="43.15836" lon="5.70818">
        <ele>56.4</ele>
        <time>2015-05-06T12:40:40Z</time>
      </trkpt>
      <trkpt lat="43.15848" lon="5.70799">
        <ele>63.5</ele>
        <time>2015-05-06T12:41:00Z</time>
      </trkpt>
      <trkpt lat="43.15848" lon="5.70798">
        <ele>63</ele>
        <time>2015-05-06T12:41:01Z</time>
      </trkpt>
      <trkpt lat="43.15876" lon="5.70784">
        <ele>56.5</ele>
        <time>2015-05-06T12:41:37Z</time>
      </trkpt>
      <trkpt lat="43.15892" lon="5.70794">
        <ele>59.5</ele>
        <time>2015-05-06T12:41:58Z</time>
      </trkpt>
      <trkpt lat="43.15902" lon="5.70773">
        <ele>62.2</ele>
        <time>2015-05-06T12:42:19Z</time>
      </trkpt>
      <trkpt lat="43.15902" lon="5.70772">
        <ele>62</ele>
        <time>2015-05-06T12:42:20Z</time>
      </trkpt>
      <trkpt lat="43.1592" lon="5.70733">
        <ele>67.8</ele>
        <time>2015-05-06T12:42:50Z</time>
      </trkpt>
      <trkpt lat="43.15933" lon="5.70718">
        <ele>66.6</ele>
        <time>2015-05-06T12:43:07Z</time>
      </trkpt>
      <trkpt lat="43.15942" lon="5.70698">
        <ele>66.4</ele>
        <time>2015-05-06T12:43:24Z</time>
      </trkpt>
      <trkpt lat="43.15943" lon="5.70696">
        <ele>66.5</ele>
        <time>2015-05-06T12:43:25Z</time>
      </trkpt>
      <trkpt lat="43.15976" lon="5.70687">
        <ele>68.9</ele>
        <time>2015-05-06T12:44:03Z</time>
      </trkpt>
      <trkpt lat="43.15993" lon="5.70684">
        <ele>71.5</ele>
        <time>2015-05-06T12:44:22Z</time>
      </trkpt>
      <trkpt lat="43.16008" lon="5.7067">
        <ele>73.1</ele>
        <time>2015-05-06T12:44:39Z</time>
      </trkpt>
      <trkpt lat="43.16009" lon="5.70669">
        <ele>72.9</ele>
        <time>2015-05-06T12:44:40Z</time>
      </trkpt>
      <trkpt lat="43.16011" lon="5.70622">
        <ele>73</ele>
        <time>2015-05-06T12:45:13Z</time>
      </trkpt>
      <trkpt lat="43.16012" lon="5.70597">
        <ele>71.9</ele>
        <time>2015-05-06T12:45:30Z</time>
      </trkpt>
      <trkpt lat="43.16013" lon="5.70574">
        <ele>72</ele>
        <time>2015-05-06T12:45:45Z</time>
      </trkpt>
      <trkpt lat="43.16012" lon="5.70572">
        <ele>72.5</ele>
        <time>2015-05-06T12:45:46Z</time>
      </trkpt>
      <trkpt lat="43.16012" lon="5.70527">
        <ele>72</ele>
        <time>2015-05-06T12:46:15Z</time>
      </trkpt>
      <trkpt lat="43.16011" lon="5.70503">
        <ele>72.1</ele>
        <time>2015-05-06T12:46:30Z</time>
      </trkpt>
      <trkpt lat="43.16013" lon="5.70479">
        <ele>72.6</ele>
        <time>2015-05-06T12:46:44Z</time>
      </trkpt>
      <trkpt lat="43.16014" lon="5.70455">
        <ele>71.5</ele>
        <time>2015-05-06T12:46:59Z</time>
      </trkpt>
      <trkpt lat="43.16014" lon="5.70453">
        <ele>71.4</ele>
        <time>2015-05-06T12:47:00Z</time>
      </trkpt>
    </trkseg>
  </trk>
</gpx>